GFSGL_925_thetae_000.txt.gz
Theta_e
303 303 301 300 299 297 296 296 295 296 294 293 293 293 293 292 292 293 293 292 291 291 290 289 289 288 288 288 288 289 289 290 291 290 291 291 291 291 291 291 291 292 292
302 300 299 299 297 294 294 294 295 293 292 292 292 292 292 291 291 292 290 289 288 288 288 288 288 288 288 288 288 288 289 289 289 289 290 291 292 292 292 293 292 291 291
300 299 299 297 293 293 293 293 293 294 293 292 292 292 292 291 291 290 288 287 287 287 287 287 287 286 286 286 286 286 286 287 287 288 288 288 288 289 288 289 290 290 292
299 299 297 294 292 292 294 294 294 294 294 293 293 292 291 289 288 287 287 287 287 286 286 285 284 284 284 283 283 284 284 285 285 285 286 286 287 287 287 288 288 288 288
299 298 297 296 295 294 294 294 294 294 293 293 293 292 288 287 287 286 286 286 285 285 284 284 283 283 283 284 284 284 284 284 285 285 285 285 285 285 286 286 286 287 287
297 297 296 295 295 294 292 292 292 293 293 292 290 287 286 286 286 286 285 284 284 283 283 282 282 282 282 282 283 283 284 284 284 284 284 284 284 284 284 284 284 285 286
294 290 291 291 291 290 290 290 288 287 287 286 286 285 285 285 285 284 284 283 282 282 281 281 281 281 282 282 282 282 282 283 283 284 284 284 284 284 284 284 284 284 285
290 291 292 291 288 287 287 287 286 285 285 284 284 285 284 283 282 282 282 281 281 281 281 281 281 281 281 281 282 282 282 282 282 283 283 283 284 284 284 284 284 284 285
293 292 290 288 287 287 286 285 284 284 284 284 284 282 281 281 281 280 281 281 280 280 280 280 280 281 281 282 282 282 282 282 283 283 283 284 283 283 283 283 283 284 284
291 289 287 287 286 286 285 284 284 283 283 282 282 281 281 280 279 280 280 280 280 281 280 280 280 281 282 282 283 283 283 283 283 283 283 283 284 284 284 284 284 285 284
289 287 286 286 285 285 284 283 283 282 282 281 280 281 280 279 279 279 280 280 280 280 281 281 281 282 281 282 282 281 282 282 283 284 284 283 284 284 284 284 285 285 285
287 287 285 285 285 283 283 282 282 282 281 280 280 280 279 279 278 278 279 280 280 281 281 281 281 280 280 280 280 280 281 281 281 282 283 283 283 284 284 284 284 284 284
287 286 285 285 284 283 282 282 281 281 281 280 280 279 278 278 277 277 279 279 280 280 281 281 280 278 278 278 278 279 279 279 280 281 283 283 283 284 284 284 284 284 284
287 286 286 285 284 283 283 281 281 281 280 280 279 278 278 277 277 277 279 279 279 281 280 279 278 277 277 277 277 277 277 278 278 280 281 282 283 283 284 284 284 284 285
287 286 286 285 285 284 283 281 281 280 279 279 278 278 278 277 277 279 279 279 280 279 279 278 277 276 276 276 276 275 276 276 277 278 279 281 283 283 283 283 284 284 285
287 286 285 284 284 283 282 281 281 280 279 278 277 277 277 277 277 277 277 277 278 277 277 276 275 275 274 275 275 274 275 275 275 276 278 280 282 283 282 282 283 284 284
286 286 284 284 283 282 282 281 280 279 278 277 276 276 276 276 276 276 275 276 275 276 275 274 274 274 273 273 274 274 273 274 275 275 277 278 280 282 283 283 283 284 284
285 285 284 283 282 281 281 280 279 278 277 276 276 275 274 275 275 274 273 274 273 273 273 273 272 272 272 272 272 273 273 274 275 275 276 277 279 280 280 281 282 282 282
285 284 283 282 281 281 280 279 279 278 277 276 275 274 273 273 273 272 272 271 270 271 271 271 271 271 271 272 273 273 274 273 274 275 275 276 277 279 279 279 280 280 281
284 283 283 282 281 280 279 279 278 278 277 275 274 273 273 272 271 271 270 270 270 269 270 270 271 271 271 272 273 273 273 273 273 274 275 276 276 277 277 278 278 278 277
283 283 283 281 280 280 279 278 278 277 276 275 274 273 272 271 271 271 270 269 269 269 269 270 270 271 272 272 273 273 273 273 273 274 275 275 276 276 276 277 277 277 277
283 282 282 280 280 279 279 278 278 277 276 275 274 273 272 271 271 270 270 269 268 268 268 269 270 270 271 271 272 273 273 273 273 274 275 275 275 276 276 276 276 276 276
283 282 281 280 280 279 279 277 277 276 276 275 274 273 272 271 271 270 270 269 268 268 268 268 269 270 271 272 272 272 273 272 273 274 275 275 275 275 275 275 275 275 275
282 282 281 280 279 279 279 277 277 276 275 275 273 273 272 271 270 270 270 269 269 268 268 268 268 268 269 271 271 272 272 273 273 273 274 274 275 275 275 275 275 275 274
282 282 281 281 280 279 279 278 277 276 275 275 274 273 272 271 271 270 270 269 269 268 268 268 268 268 268 269 270 271 271 272 273 273 273 273 273 274 274 274 275 275 274
282 282 281 280 280 280 279 278 277 276 276 275 274 273 272 271 271 271 271 270 270 269 268 268 268 268 268 268 268 268 269 270 271 272 272 272 272 272 272 273 273 273 273

GFSGL_925_thetae_003.txt.gz
Theta_e
303 302 300 300 299 295 294 294 294 295 293 293 293 293 293 293 292 291 291 291 291 291 291 291 291 290 290 290 290 290 290 290 291 290 290 291 291 291 291 291 292 291 292
301 300 299 297 295 293 294 294 294 294 292 293 293 293 293 292 293 292 290 289 289 289 288 288 288 288 288 289 289 289 289 289 290 290 290 290 290 290 291 292 292 292 293
299 298 297 297 296 293 294 295 295 295 294 294 294 293 293 291 289 288 287 287 287 287 287 287 287 287 287 287 287 287 287 287 287 288 288 288 289 289 289 289 290 290 290
298 298 297 296 295 295 294 295 294 294 293 292 293 293 292 290 288 286 286 286 286 285 285 285 285 284 284 285 285 285 285 285 286 286 286 287 287 287 288 288 289 289 289
298 297 295 296 295 293 292 292 292 292 293 292 292 290 287 286 286 286 286 285 285 285 285 284 284 283 283 283 284 284 285 285 286 286 286 286 287 287 287 287 288 288 288
294 292 291 291 292 291 291 290 290 288 287 286 286 285 285 285 285 286 285 286 285 284 284 283 283 282 282 282 283 283 283 284 285 285 285 286 286 286 286 286 286 287 288
292 292 292 292 290 288 287 287 286 286 285 285 285 284 285 285 284 283 283 283 283 283 282 282 282 282 282 282 283 282 282 282 283 283 284 285 285 285 285 285 285 286 286
292 293 292 290 288 287 287 286 285 284 284 284 284 284 283 282 281 281 281 281 282 281 281 281 281 282 282 282 282 282 283 283 283 283 283 284 284 284 284 285 285 285 285
292 292 289 287 287 286 285 285 284 283 283 283 282 282 282 281 280 280 280 281 281 281 281 281 281 282 282 282 282 283 283 283 283 283 283 283 283 283 283 284 285 285 285
290 289 287 286 286 285 284 284 283 283 283 282 281 281 280 280 279 279 280 280 280 281 281 281 281 281 282 282 282 283 283 283 283 285 285 284 284 285 284 284 284 285 285
289 288 287 285 285 284 283 283 283 282 282 281 281 280 280 279 279 279 279 279 280 280 281 282 282 282 281 280 281 281 281 281 282 283 284 284 285 285 285 284 285 285 285
289 288 286 285 285 284 283 283 282 282 282 281 280 280 280 279 278 278 278 279 279 280 281 282 282 280 279 278 279 279 279 279 281 281 282 283 284 285 285 285 285 285 285
288 287 286 285 285 284 283 283 282 282 281 280 280 279 279 278 278 278 278 279 279 280 281 280 279 278 277 277 277 277 278 279 280 281 282 283 284 285 285 285 285 285 284
287 287 286 285 285 285 283 283 282 282 281 280 279 279 278 278 278 278 279 279 279 280 280 279 277 277 277 277 277 278 278 278 278 280 281 282 283 284 285 285 285 286 285
287 286 286 285 284 283 283 282 281 281 279 279 278 278 277 277 277 278 277 277 278 278 278 277 277 276 277 277 277 277 277 277 278 278 280 282 284 285 285 285 285 286 286
286 286 285 284 283 282 282 281 281 279 278 277 277 276 276 276 277 276 276 276 276 276 276 276 275 275 276 276 276 276 276 276 277 278 279 280 282 284 285 284 284 285 286
286 285 285 284 283 282 281 281 280 279 278 277 276 275 275 275 275 275 274 274 274 274 275 274 274 274 274 275 275 275 275 276 276 277 277 278 280 283 284 284 285 285 285
285 285 284 282 282 281 280 279 278 278 277 277 275 274 274 274 274 274 273 272 273 272 273 273 273 273 273 274 274 274 274 275 275 276 276 277 278 281 282 283 284 284 285
284 284 283 282 281 280 279 279 278 278 277 277 275 274 273 273 272 272 271 271 271 271 271 271 271 271 272 272 272 273 274 274 275 275 276 276 276 278 280 281 282 280 282
283 283 282 282 281 280 279 278 278 278 277 276 275 273 273 273 272 272 271 270 270 270 270 270 270 270 271 271 272 272 273 274 275 275 275 275 276 277 278 279 280 281 281
283 282 282 281 280 279 279 278 277 277 277 276 274 272 272 272 272 271 271 270 269 269 269 269 269 269 270 270 271 271 272 273 273 274 274 275 275 276 277 278 279 279 279
283 283 282 280 280 279 279 277 277 276 276 275 274 273 272 272 271 271 270 269 269 268 268 268 268 268 268 269 269 270 271 272 272 272 274 275 276 276 277 277 278 278 278
282 282 281 280 280 279 278 277 276 276 276 275 274 273 272 272 271 271 270 269 269 268 267 267 267 267 268 269 270 270 270 270 270 272 272 274 275 275 276 277 276 277 276
281 281 281 280 280 279 278 277 277 276 275 275 274 273 272 272 271 271 270 269 269 268 268 267 268 267 268 268 269 270 271 272 272 272 272 272 273 274 275 275 276 275 276
281 281 281 280 280 279 278 278 277 276 276 275 274 273 272 272 271 271 270 270 269 269 268 268 267 267 268 268 268 268 269 271 271 272 272 272 272 273 273 273 273 274 274
281 281 281 281 280 279 278 277 277 277 276 275 274 274 273 272 271 271 271 270 270 269 268 268 268 267 267 267 267 268 268 269 269 270 271 271 271 271 271 271 272 273 273

GFSGL_925_thetae_006.txt.gz
Theta_e
305 304 302 301 299 298 298 297 298 297 297 296 296 296 296 295 294 293 293 293 293 292 292 292 291 291 291 291 291 291 291 292 293 292 292 292 292 292 293 292 292 292 293
302 301 301 299 298 298 298 297 297 297 297 296 296 295 295 295 294 293 293 292 291 291 291 290 290 289 289 289 290 290 290 290 291 292 291 291 291 292 292 292 292 292 292
301 300 299 299 298 298 297 296 296 296 295 295 295 294 294 293 293 292 291 290 290 290 290 289 289 289 289 289 289 289 289 289 289 289 290 290 290 290 291 291 291 292 292
300 299 299 298 298 296 295 295 294 293 293 293 292 291 291 290 289 289 289 289 289 288 288 287 287 287 287 287 287 287 287 287 287 288 288 289 289 289 289 290 290 290 291
299 298 296 295 294 294 293 292 291 290 289 288 288 288 288 287 287 287 287 287 288 287 287 287 286 286 285 284 284 285 285 286 287 288 289 289 289 289 290 290 290 290 290
298 296 294 294 293 292 291 290 289 288 288 287 287 287 287 287 285 284 284 285 286 286 286 286 286 285 284 284 283 283 283 285 286 287 287 287 288 288 288 288 289 289 290
296 295 294 294 292 290 289 288 288 288 287 287 287 287 286 286 284 282 282 283 284 284 285 285 284 284 283 284 284 284 283 283 283 283 284 285 286 286 287 287 287 288 288
295 294 294 292 290 289 288 288 287 287 287 286 286 285 285 285 283 282 281 281 283 284 284 284 283 283 284 283 283 283 283 284 284 284 284 284 285 285 285 286 286 287 287
295 294 293 291 290 288 288 287 287 287 286 286 285 285 284 284 282 281 280 281 282 282 282 282 283 283 283 283 283 283 284 284 284 284 284 283 283 284 284 285 286 286 288
294 294 292 290 289 288 287 287 287 286 286 285 285 284 283 282 282 280 279 280 281 281 282 282 282 282 282 283 283 283 283 283 284 284 284 286 284 284 284 284 285 286 286
293 292 291 290 288 287 287 287 287 286 286 285 284 283 283 282 280 280 279 279 280 281 281 282 283 283 282 281 280 281 281 281 281 282 283 283 284 286 286 286 286 286 286
293 292 291 289 288 287 288 287 287 286 285 284 283 283 282 281 280 280 279 279 280 281 281 282 283 280 280 279 279 279 279 279 281 282 283 283 284 285 286 287 286 286 286
292 291 290 289 288 288 288 287 286 285 284 283 283 282 281 280 280 279 279 279 279 280 281 281 279 279 279 279 279 278 278 281 281 282 283 284 285 286 286 287 287 287 286
291 290 290 289 288 288 287 286 285 284 283 282 281 281 280 279 279 279 279 278 279 280 279 281 279 278 278 279 279 280 280 280 280 281 282 283 284 285 286 287 286 287 287
289 289 289 288 288 287 286 285 284 283 280 280 279 279 279 278 278 277 277 277 277 277 278 279 278 278 279 279 279 279 279 280 280 281 282 283 284 285 287 287 287 287 287
288 288 288 288 288 287 285 285 283 281 278 277 277 276 276 276 276 276 276 275 275 276 278 277 277 277 278 278 278 278 279 279 279 280 281 282 283 285 286 286 285 286 287
287 287 288 287 286 285 285 284 283 282 280 278 277 276 275 275 275 275 274 274 274 275 276 276 276 276 277 277 277 277 277 278 278 279 281 281 282 283 285 286 286 286 286
286 286 286 286 286 285 284 283 282 281 281 280 278 276 275 274 274 274 273 274 275 274 274 274 274 275 276 276 276 276 277 277 278 278 279 280 280 282 283 284 285 286 287
285 286 285 285 284 283 282 282 282 281 280 279 278 277 275 275 274 274 274 274 273 273 273 273 274 274 274 275 275 275 277 277 277 278 278 279 279 281 282 282 283 283 284
284 284 283 284 284 283 282 282 281 280 280 279 278 276 275 275 275 274 274 273 272 272 272 272 273 273 273 274 275 275 276 276 277 277 278 278 279 280 280 281 281 282 282
284 284 283 284 283 282 282 281 281 280 279 279 278 275 273 274 274 274 273 272 271 271 271 271 272 272 272 273 273 274 275 276 276 276 277 278 279 279 280 280 280 281 281
284 284 283 283 282 282 281 281 280 280 279 279 278 276 274 275 274 274 273 272 271 271 270 271 271 271 271 271 272 273 274 274 274 275 276 277 278 279 279 279 280 280 280
283 283 283 283 282 281 281 281 280 280 279 279 278 277 276 275 274 274 273 272 271 271 270 270 270 270 270 270 270 271 272 272 272 273 274 276 277 277 279 279 279 279 279
282 283 283 283 282 281 281 281 280 280 279 279 278 277 276 275 274 274 273 273 272 271 270 270 269 269 269 269 269 269 269 270 270 271 273 274 275 276 277 277 278 277 278
283 283 283 283 282 282 281 281 281 280 280 279 278 277 276 275 274 274 273 273 272 271 270 270 269 269 268 268 268 268 268 269 269 270 272 273 274 274 274 275 276 277 276
283 283 283 283 283 282 281 281 281 280 280 279 278 277 276 275 274 273 273 273 272 272 270 270 269 268 268 268 267 268 268 268 269 269 271 272 272 272 273 273 274 275 275

GFSGL_925_thetae_009.txt.gz
Theta_e
307 305 304 303 301 300 299 299 299 298 298 298 298 297 297 296 296 296 295 295 295 295 294 294 293 293 292 292 292 292 292 293 295 294 293 293 293 294 294 294 294 294 294
304 303 302 301 300 300 299 298 297 297 297 297 296 296 295 296 295 295 294 293 293 293 292 292 292 292 291 291 291 291 291 291 292 293 292 292 292 293 293 293 294 294 294
303 302 301 300 299 299 297 296 296 295 295 294 294 294 293 292 291 291 290 291 291 291 291 290 290 290 289 289 290 290 290 290 290 291 291 291 291 291 292 292 292 293 293
302 300 299 298 297 296 296 295 294 293 291 290 290 290 289 289 289 289 289 289 288 289 289 289 289 289 289 288 288 288 288 288 288 289 289 290 290 290 290 291 292 292 292
301 299 298 297 296 295 294 293 292 291 290 289 289 289 289 289 288 287 287 287 286 287 287 288 288 288 287 286 286 286 286 286 287 288 289 290 291 291 291 291 292 292 292
300 298 297 296 295 294 293 291 290 289 289 289 289 288 288 288 286 285 284 284 284 285 286 286 287 287 287 286 285 284 284 284 285 286 287 288 289 289 289 290 290 290 292
299 298 297 296 295 293 292 290 289 289 289 288 288 288 287 287 285 284 283 283 283 284 285 285 286 286 286 286 285 285 285 284 284 284 284 285 286 286 287 288 289 289 290
298 297 296 295 294 292 291 290 289 289 289 288 288 287 287 286 285 283 282 282 282 283 284 284 284 285 285 285 285 284 284 284 284 285 285 285 285 285 286 286 287 287 288
299 296 295 294 294 292 290 289 289 289 288 288 287 287 286 285 284 283 281 281 281 282 282 283 283 283 283 283 283 284 284 284 285 285 285 285 284 284 284 285 286 287 288
297 295 294 293 293 291 290 289 289 288 288 288 287 286 285 284 284 282 281 280 280 281 281 282 282 283 283 283 283 284 284 284 283 284 284 285 285 286 285 284 284 286 287
295 294 294 294 292 290 289 289 289 288 288 287 286 285 284 284 283 282 281 280 280 281 281 282 283 282 281 281 281 281 282 281 281 281 282 283 283 284 285 287 285 286 286
295 295 294 293 291 290 289 289 289 288 287 286 285 284 284 283 282 281 280 280 280 280 281 281 283 281 280 280 280 280 279 279 280 282 283 284 285 285 285 286 287 288 287
294 293 293 292 290 289 289 288 288 287 287 285 284 284 283 282 281 280 279 279 279 279 280 280 281 280 279 280 281 279 279 281 283 283 284 285 286 286 286 287 287 288 288
292 292 291 290 289 289 289 288 287 286 285 284 282 282 281 280 280 279 278 278 278 278 278 278 280 279 279 280 281 281 281 282 282 283 283 284 285 286 287 287 287 287 288
290 290 289 289 289 289 288 287 286 285 283 281 280 279 279 278 278 277 277 276 277 277 277 279 279 278 279 280 280 281 281 281 282 282 283 284 285 286 287 288 287 288 288
289 289 289 289 289 288 287 286 285 284 282 280 278 277 277 276 276 276 276 276 276 276 278 278 278 277 278 279 279 279 279 280 280 281 282 283 284 284 286 287 287 287 287
288 288 288 288 288 287 286 285 285 284 282 281 279 277 276 276 275 275 275 275 276 276 277 277 276 277 277 278 278 278 278 279 279 280 281 282 282 283 284 286 287 288 288
287 287 287 287 287 286 285 284 284 283 283 283 281 278 277 276 275 275 275 276 276 276 275 276 276 276 276 276 277 277 278 279 279 280 280 281 281 283 284 284 285 285 286
286 285 285 285 285 284 284 284 284 283 283 282 281 280 278 276 276 276 275 275 275 275 274 275 275 275 275 276 276 277 278 278 278 279 280 280 281 282 282 283 283 284 284
287 285 284 285 285 284 284 284 283 283 282 282 281 280 277 276 277 276 276 275 274 274 274 274 274 274 274 275 275 275 277 277 277 277 278 280 281 281 282 282 282 283 283
286 285 284 284 285 284 283 283 283 282 282 281 281 279 276 275 277 276 276 275 274 273 273 273 274 274 273 273 274 274 275 276 276 276 277 278 280 280 281 281 281 282 282
284 285 284 284 284 284 283 282 282 282 282 281 281 280 277 277 277 276 276 275 274 273 272 272 273 272 272 272 272 273 273 274 274 275 275 277 278 279 280 281 280 281 281
284 284 284 285 284 283 283 283 283 282 282 281 280 280 279 278 277 276 276 275 274 273 272 271 271 271 271 271 271 271 271 271 271 272 273 275 276 277 279 279 280 279 280
284 284 284 284 284 283 283 283 282 282 282 281 281 280 279 278 277 276 276 275 274 274 272 272 271 271 270 270 270 270 269 268 269 270 272 275 275 276 276 277 278 278 278
284 284 284 284 284 284 283 283 283 282 282 282 281 280 279 278 277 276 276 275 275 274 273 271 271 270 270 270 269 268 268 269 268 269 271 274 274 274 275 276 275 278 277
284 284 284 284 284 284 284 283 282 282 282 282 281 280 279 278 277 276 276 275 274 273 273 272 271 270 270 270 269 268 269 269 269 269 270 272 272 273 272 274 274 275 275

GFSGL_925_thetae_012.txt.gz
Theta_e
307 305 304 303 302 301 300 299 298 297 297 297 297 296 296 295 295 294 293 294 294 293 293 294 294 293 293 293 292 292 292 292 293 292 293 293 293 294 295 294 294 294 294
305 304 302 302 300 299 299 298 296 296 296 295 294 294 293 292 291 291 291 291 291 292 292 292 292 292 291 290 290 290 291 291 291 291 291 291 291 292 292 292 292 294 294
304 302 302 300 299 298 297 296 296 295 294 292 291 291 290 290 290 289 289 290 289 288 288 288 289 290 290 289 289 289 289 289 288 289 289 289 289 290 290 291 291 292 292
303 302 301 299 298 297 296 295 294 293 292 291 290 290 289 289 289 289 288 287 287 286 286 286 286 287 288 289 289 288 288 287 286 286 287 287 288 289 289 290 290 290 291
302 301 300 299 297 297 296 294 293 291 290 290 289 289 289 289 288 287 286 285 285 285 285 285 285 286 286 287 287 287 286 286 286 286 286 286 288 289 289 290 290 291 291
301 301 300 299 297 296 295 294 292 291 290 289 289 289 288 288 287 286 285 284 284 284 283 283 284 285 286 286 286 286 286 285 285 285 285 285 285 286 286 287 288 289 287
302 301 300 297 296 296 295 293 291 290 289 289 289 289 288 287 286 285 284 283 282 282 282 283 283 284 284 285 285 285 285 286 285 284 284 284 284 284 284 285 286 287 288
300 299 299 297 296 295 294 292 291 290 289 289 289 288 287 286 285 284 284 282 282 281 281 281 281 282 283 283 283 283 284 284 284 285 285 284 284 284 285 285 286 286 286
297 298 298 296 295 294 293 291 290 289 289 289 289 288 287 286 285 285 284 282 282 281 280 281 282 282 282 282 283 283 283 283 284 284 285 285 284 285 285 285 285 285 285
296 296 295 294 294 294 292 290 289 289 289 288 288 287 286 285 285 284 282 281 281 280 280 281 281 282 282 281 281 282 283 283 283 282 282 282 282 282 283 284 286 285 284
296 295 295 294 292 292 291 290 290 289 288 288 286 285 285 285 283 282 281 281 280 280 279 280 280 281 282 281 281 280 280 281 280 280 280 280 281 282 283 284 284 286 285
294 294 294 294 293 292 290 290 289 288 288 286 285 285 284 283 281 281 280 279 279 279 278 279 279 280 280 280 280 280 280 280 279 279 281 281 283 284 284 285 285 286 286
292 292 292 292 291 290 290 289 288 287 286 285 284 283 282 281 280 279 278 277 278 278 278 278 278 280 279 279 280 280 280 280 281 282 282 283 284 284 284 285 285 286 286
291 291 291 290 290 289 289 288 287 287 286 284 283 281 280 279 278 277 277 277 277 277 276 278 279 278 278 279 280 280 280 281 281 282 282 282 283 284 285 286 287 287 287
290 289 289 290 289 289 288 287 286 285 284 282 281 280 279 278 277 277 277 277 277 276 277 278 277 277 278 279 278 278 279 279 280 280 281 283 283 284 284 285 287 287 287
289 288 289 288 288 288 288 287 286 285 284 283 281 279 278 277 277 276 276 276 277 276 277 277 277 277 277 278 278 278 278 279 279 280 281 281 282 283 284 285 286 287 287
288 287 287 288 288 288 287 286 285 284 284 283 282 280 278 277 277 277 276 276 277 276 276 276 276 276 276 277 277 277 278 279 278 279 280 281 281 282 284 284 284 284 285
287 287 287 287 287 286 285 284 284 284 284 284 282 281 278 278 277 277 276 275 275 275 275 275 275 275 275 276 276 276 277 278 277 278 279 280 280 281 283 283 283 284 284
288 287 285 285 285 285 284 284 284 284 283 283 282 282 279 278 277 277 277 275 274 274 274 274 274 275 275 275 275 275 276 277 277 277 277 278 280 281 281 282 282 282 283
287 286 285 284 284 285 285 284 283 284 283 283 282 281 279 277 277 277 276 276 274 273 273 273 274 274 273 273 274 274 275 275 275 275 276 277 279 280 281 281 281 282 282
287 286 285 284 284 285 284 283 284 283 283 282 282 281 279 277 277 277 276 276 275 273 273 272 273 273 272 272 272 272 273 273 272 273 274 275 277 278 279 280 280 281 280
284 284 284 285 285 284 284 283 282 283 283 283 282 281 280 279 278 277 277 276 275 274 273 272 272 272 271 271 271 271 271 270 270 270 272 274 275 276 277 279 279 279 280
284 284 284 284 284 285 284 283 283 283 283 282 281 281 281 280 278 277 277 276 275 274 274 272 272 271 271 270 270 270 270 269 268 269 271 273 275 275 276 277 277 278 278
284 284 284 284 284 284 284 284 284 283 283 283 282 281 281 280 279 278 277 276 275 274 274 273 272 271 270 270 270 269 268 268 268 269 271 273 273 274 274 275 275 276 277
284 284 284 284 284 285 285 284 284 283 282 283 283 282 281 280 279 278 277 276 276 274 274 273 272 271 270 270 270 269 269 269 269 269 270 271 272 272 272 274 274 275 275
285 284 283 284 284 284 284 284 284 282 282 282 282 282 281 280 279 278 277 276 275 275 273 273 272 271 270 270 270 269 269 269 269 269 270 270 270 271 270 272 272 273 273

GFSGL_925_thetae_015.txt.gz
Theta_e
306 305 304 302 302 300 299 298 297 296 295 295 295 292 291 290 290 290 290 289 290 290 289 288 288 288 291 292 291 290 290 290 290 290 290 290 290 290 291 292 294 294 294
305 304 303 302 300 299 298 297 296 296 295 294 291 290 290 289 289 289 289 289 288 287 287 286 286 286 286 287 289 289 289 289 289 287 287 287 287 288 289 289 289 292 294
304 304 302 301 300 299 297 296 295 294 293 291 290 290 289 289 289 289 288 287 286 286 285 285 285 284 285 286 287 288 288 288 288 286 286 286 286 286 287 288 288 289 289
304 303 303 301 300 298 296 295 294 293 292 290 290 289 289 289 289 288 287 286 285 285 284 284 283 284 284 285 286 287 287 288 287 286 286 285 285 286 287 288 288 289 290
302 302 302 301 299 298 297 295 293 293 291 289 289 289 289 288 288 287 286 285 285 283 282 282 282 283 284 284 286 286 286 286 286 285 285 285 284 285 285 285 285 286 288
296 297 301 299 298 297 296 295 295 291 290 289 289 289 289 288 287 286 285 284 284 283 282 280 280 281 282 283 283 285 285 285 286 284 284 283 284 284 284 284 284 285 285
294 297 298 298 297 297 296 295 293 290 289 289 289 288 288 287 286 285 285 284 284 282 281 281 280 280 281 281 282 283 283 283 284 285 285 284 284 284 284 284 284 284 285
296 296 296 296 296 295 294 293 290 290 289 289 288 288 287 286 285 285 285 284 282 282 281 280 280 281 281 281 282 282 282 283 283 283 284 284 284 284 284 284 284 285 285
296 295 295 295 294 294 294 292 291 290 289 289 288 287 285 284 285 284 283 282 281 280 280 279 280 280 280 282 281 281 282 282 283 283 284 284 284 283 284 284 285 285 284
295 294 294 294 294 293 293 291 290 289 288 288 287 285 285 284 282 282 282 280 279 279 279 279 279 280 280 281 281 281 280 280 281 281 281 282 281 281 281 281 282 284 285
293 293 293 293 293 293 292 290 289 288 287 286 285 284 282 282 280 280 280 278 278 278 278 278 278 279 279 281 281 280 280 280 280 280 279 279 280 281 282 282 282 283 284
292 291 291 291 291 291 290 289 288 287 286 285 284 283 281 280 279 278 278 277 277 277 277 277 277 279 279 279 280 280 280 280 280 280 280 280 281 283 283 284 284 284 284
291 290 290 289 289 289 288 288 287 286 285 284 283 282 281 279 277 277 277 277 277 277 277 277 278 278 278 279 279 279 280 281 281 281 281 282 282 283 284 285 286 286 285
290 289 289 289 289 289 288 287 286 285 285 283 282 281 280 278 277 277 277 277 277 277 276 277 277 277 277 278 277 278 279 279 279 280 280 281 282 283 284 284 285 287 286
289 288 288 288 287 288 287 286 285 285 284 283 282 281 279 278 277 278 277 277 278 277 276 276 276 276 276 277 277 277 278 278 279 279 280 281 282 282 283 284 285 287 287
288 288 287 287 287 287 286 285 285 284 284 284 283 281 279 277 278 278 277 277 277 275 275 275 276 276 276 276 276 276 277 278 278 278 280 280 280 281 283 283 283 284 284
288 288 287 287 287 286 285 284 284 283 284 283 283 281 279 278 278 278 277 276 275 275 274 274 275 275 275 275 275 275 275 277 276 277 278 278 280 281 282 282 282 283 283
288 287 287 286 285 285 284 284 284 284 284 283 283 282 279 278 278 278 277 275 274 274 274 274 274 274 274 274 274 274 274 275 275 275 276 277 278 280 281 281 282 282 282
287 287 287 285 284 284 284 284 283 283 283 282 283 281 279 279 277 277 276 275 274 273 273 273 273 273 272 273 273 273 273 273 273 274 274 275 276 278 279 281 281 281 281
287 287 285 285 284 284 284 284 283 283 283 282 282 282 281 279 277 277 276 276 275 274 273 272 272 272 272 271 272 271 271 270 271 272 273 274 275 276 277 279 279 280 279
286 285 284 284 284 284 284 283 283 282 282 282 282 282 281 279 278 277 276 276 275 274 273 273 272 272 271 270 271 270 270 270 269 270 272 273 274 274 276 277 278 278 279
286 284 283 283 283 283 284 284 283 282 283 283 283 281 281 280 279 278 277 276 276 275 274 273 272 271 271 270 270 270 269 269 268 269 270 272 274 274 275 275 276 277 277
285 284 284 283 283 283 284 284 283 283 283 282 282 282 281 281 280 279 278 277 276 275 274 274 273 272 271 270 270 270 269 268 268 268 270 272 272 272 273 274 274 276 275
285 283 283 283 283 283 284 284 284 283 282 282 282 283 282 281 280 279 278 277 276 276 275 274 273 272 271 270 270 270 269 269 268 268 270 271 271 271 272 273 273 274 274
285 284 283 284 284 284 284 284 284 284 283 282 282 282 282 281 280 280 278 278 277 276 275 274 273 273 271 270 270 270 269 269 269 269 270 270 270 271 270 272 272 272 273
287 285 284 284 283 283 284 284 284 283 282 282 281 281 281 280 280 280 279 278 277 276 275 274 273 273 272 270 270 270 269 269 268 269 270 269 269 269 270 270 271 271 271

GFSGL_925_thetae_018.txt.gz
Theta_e
305 305 304 303 302 301 300 299 298 296 295 294 294 292 290 289 289 289 288 289 288 287 286 286 286 285 285 285 284 285 288 290 290 289 289 289 289 289 289 289 288 291 294
303 304 303 302 301 299 298 298 297 296 295 294 292 290 290 289 289 288 288 288 287 286 286 285 285 284 284 284 284 284 286 286 288 287 287 287 287 286 286 287 288 287 288
302 302 301 300 301 300 300 298 295 294 294 293 291 290 289 289 288 288 287 286 286 286 285 284 283 282 282 282 283 284 284 285 286 287 286 286 286 285 285 285 286 287 288
296 296 296 299 300 300 298 296 296 295 293 293 290 289 289 289 288 288 287 286 286 284 283 283 282 280 281 282 283 284 285 285 286 285 286 285 285 285 284 285 285 286 286
294 296 297 297 296 297 297 296 296 295 294 292 289 289 289 288 288 287 286 285 284 284 284 282 281 281 281 281 282 282 284 285 285 285 284 284 284 284 284 284 284 284 283
294 296 296 295 295 296 296 296 296 294 290 289 289 289 288 287 287 286 285 285 284 284 282 282 281 281 280 281 281 282 282 283 283 284 284 283 283 284 284 284 283 283 282
295 295 295 294 294 295 295 295 294 292 290 289 289 288 287 286 285 285 285 284 283 282 281 281 280 280 279 280 280 281 282 282 282 283 283 284 284 284 284 283 283 283 283
295 294 294 293 293 294 294 294 291 290 291 288 288 287 285 284 284 284 283 282 281 280 279 279 279 279 279 280 281 282 281 281 282 282 283 283 283 284 284 284 284 284 284
294 294 293 293 293 293 292 292 292 291 288 288 287 285 284 283 282 282 281 280 278 278 278 278 278 278 279 280 280 281 281 280 280 281 282 283 283 284 284 284 284 284 284
293 293 292 292 293 293 292 291 290 288 288 287 285 283 282 281 280 280 280 278 277 277 277 277 278 278 279 280 281 281 280 280 280 280 280 280 280 280 280 280 281 281 282
292 292 291 290 290 290 291 290 288 288 286 285 284 282 281 280 279 278 278 277 277 277 277 277 277 278 279 279 280 280 280 280 281 280 280 280 280 281 282 282 282 281 281
291 290 290 289 289 289 288 287 287 286 285 284 283 281 280 279 278 277 277 277 277 277 277 277 278 278 278 278 278 279 279 280 280 281 280 280 281 282 282 283 283 283 283
290 290 289 289 288 288 287 287 286 285 284 283 282 281 280 279 278 278 277 277 277 277 277 277 277 277 277 277 277 278 278 279 279 280 280 281 281 282 283 284 284 285 285
290 289 288 287 287 287 286 285 285 284 284 283 283 282 280 279 278 278 278 277 277 276 276 276 276 275 276 276 276 277 277 278 278 279 280 280 281 282 283 283 284 286 285
290 288 287 287 287 287 285 285 284 283 283 283 283 282 280 279 278 279 278 277 277 275 275 275 275 275 275 275 275 275 276 277 277 278 279 280 280 281 282 283 284 285 284
289 288 287 286 287 286 285 284 284 283 283 283 283 282 281 279 278 279 278 276 275 275 274 274 274 274 274 274 274 274 275 276 276 276 277 277 279 280 281 282 282 283 283
289 288 287 286 286 286 284 284 283 283 283 282 283 282 281 279 278 278 278 276 274 274 273 273 273 273 273 273 273 273 273 273 274 275 275 276 277 279 280 281 282 282 283
288 288 287 287 286 284 284 284 283 283 283 282 282 282 281 279 278 277 277 275 274 273 272 272 273 273 272 272 272 272 272 271 272 273 274 275 276 277 278 279 281 281 281
287 287 287 286 285 284 284 284 283 282 283 283 282 282 281 280 278 277 276 276 274 274 273 272 272 272 271 271 271 271 270 269 270 272 273 274 275 275 276 278 279 279 279
287 286 286 285 284 284 283 284 284 283 282 282 282 282 281 280 279 278 277 276 275 274 274 273 272 271 271 270 270 270 270 269 269 270 272 273 274 274 275 276 277 278 278
287 286 285 285 284 284 284 283 283 283 282 282 282 282 281 281 280 279 278 277 276 275 274 273 273 272 271 270 270 269 269 268 268 268 271 272 273 273 274 274 276 276 276
286 285 285 284 283 283 283 283 284 283 282 282 282 282 282 281 281 280 279 277 277 276 275 274 273 272 271 271 270 270 269 268 268 268 270 271 272 272 273 273 275 275 275
287 286 285 283 283 283 283 283 284 284 283 283 282 282 282 282 281 280 279 278 277 276 275 274 274 273 272 271 270 270 270 268 268 268 270 270 271 271 271 273 273 274 274
287 285 285 283 283 283 283 283 284 284 283 283 282 282 282 282 281 280 280 278 278 277 276 275 274 273 272 271 270 270 270 269 268 268 270 270 270 270 270 272 272 272 273
287 285 285 284 283 283 283 283 284 284 283 283 282 281 281 281 281 280 280 279 278 277 276 275 274 273 273 272 271 270 270 269 269 269 270 270 269 269 270 270 271 271 271
287 286 286 286 285 284 283 283 283 283 283 283 282 281 281 280 280 280 279 279 278 278 277 275 274 273 273 272 271 271 270 269 269 269 269 269 269 268 270 270 269 270 270

GFSGL_925_thetae_024.txt.gz
Theta_e
302 302 300 296 295 293 295 299 299 298 297 297 296 295 293 292 291 290 289 288 288 287 287 286 285 285 284 283 282 281 281 281 283 283 283 284 284 286 288 288 288 288 287
301 297 295 294 294 295 296 296 295 294 294 296 294 293 294 293 290 290 289 288 288 286 285 285 285 284 283 282 281 281 281 281 281 282 283 283 284 286 286 287 287 287 286
295 295 294 294 294 293 293 293 292 293 294 294 293 294 293 290 289 288 288 287 286 285 285 284 283 283 283 282 281 281 281 280 281 283 283 283 284 285 285 286 286 285 285
294 294 294 294 294 293 292 292 292 294 295 294 295 294 291 288 289 288 287 286 285 285 284 284 283 282 282 281 281 281 280 280 280 281 281 283 284 284 284 284 285 284 284
294 294 294 295 293 293 292 291 292 294 294 294 290 289 288 289 288 287 286 285 284 284 282 281 281 281 281 281 280 280 280 280 280 281 281 282 282 283 283 284 283 284 284
293 294 295 294 293 292 292 292 292 293 292 292 290 288 288 287 286 285 284 283 282 281 279 278 278 278 278 279 279 279 280 280 281 281 281 281 281 282 283 283 282 282 283
293 294 294 293 292 292 292 292 292 291 291 289 289 287 286 285 284 283 282 281 280 279 277 277 277 278 277 278 278 279 280 280 280 280 282 281 282 282 282 282 282 282 282
293 294 293 292 292 291 290 291 292 290 290 290 287 286 285 283 281 281 280 279 278 277 277 277 277 277 277 278 280 280 280 279 280 280 280 281 281 281 282 282 282 282 282
293 293 292 291 291 290 289 289 291 290 289 287 286 284 283 282 280 279 279 278 277 277 277 277 277 277 278 279 279 279 279 280 280 281 281 281 281 281 281 281 282 282 282
292 292 291 290 290 289 288 288 289 290 287 286 285 284 282 281 280 279 279 278 277 277 277 277 276 277 278 279 279 278 279 280 279 280 280 280 280 280 280 280 280 281 283
292 292 291 290 289 288 288 287 287 287 286 285 284 283 281 281 279 278 279 278 278 277 276 276 276 277 278 278 278 277 278 278 278 279 279 280 280 280 281 281 280 279 280
291 291 290 290 289 288 287 287 287 286 285 284 283 282 281 280 279 278 278 278 277 276 275 275 276 276 276 276 276 277 277 277 277 278 278 279 280 280 281 282 282 282 281
291 290 290 289 288 287 287 286 285 285 284 284 283 282 282 280 279 278 278 278 276 276 275 275 275 274 274 274 275 275 275 275 276 276 277 278 278 280 281 282 283 283 283
290 289 289 288 288 286 286 285 285 284 284 283 283 282 282 281 279 279 279 278 276 275 274 274 273 273 273 273 273 273 273 273 274 274 275 276 278 279 281 281 282 284 284
289 288 289 288 288 286 285 285 285 285 284 283 283 282 282 281 280 279 279 278 276 275 273 273 273 272 272 272 272 272 271 271 273 274 274 275 276 278 279 281 282 282 282
288 288 287 287 287 286 285 285 285 284 283 283 283 282 282 281 280 279 278 277 275 274 273 272 272 272 271 271 271 271 270 269 271 272 273 274 274 276 277 279 280 280 281
288 288 287 287 287 287 286 285 284 284 283 283 282 282 282 281 280 279 278 277 275 274 273 272 272 271 271 270 270 270 270 269 270 272 272 273 274 275 276 277 277 278 278
288 288 287 287 287 286 286 285 285 284 283 283 282 282 281 281 280 279 278 277 276 275 274 273 272 271 271 270 270 269 269 268 269 271 272 272 273 274 274 275 275 276 276
288 288 288 287 286 286 286 285 284 284 283 283 282 282 281 281 280 279 278 277 277 276 275 274 273 272 271 271 270 269 269 268 268 269 271 271 272 272 273 274 274 275 275
287 288 287 287 286 286 285 284 284 283 283 283 282 281 281 281 281 281 280 279 278 277 276 275 274 273 272 271 270 270 270 269 268 268 270 271 271 271 272 272 273 273 274
286 286 287 286 286 285 284 284 284 283 283 283 282 281 281 281 281 281 280 280 279 278 277 276 275 274 273 272 271 270 270 269 268 268 269 270 270 270 271 272 273 273 273
286 286 286 285 284 285 284 283 283 282 283 283 283 282 282 282 281 281 281 280 280 279 277 276 275 274 273 273 271 270 270 269 269 268 269 270 269 270 270 271 272 272 272
286 286 286 285 284 284 285 284 283 282 282 282 282 283 282 282 281 281 281 281 280 279 278 277 276 275 274 273 272 271 270 270 269 268 268 269 270 269 269 270 270 271 271
285 285 286 285 284 284 284 284 283 282 282 282 282 283 282 282 282 281 281 281 280 279 278 277 276 276 274 274 273 272 271 270 269 268 268 269 269 269 269 269 269 270 270
286 286 286 285 285 285 284 284 284 283 283 282 282 282 283 283 283 282 281 281 280 280 279 278 277 276 275 274 273 272 271 271 270 269 268 269 269 269 268 269 269 269 270
285 285 285 286 285 285 284 284 284 284 284 284 284 283 282 283 283 282 281 280 280 279 279 278 278 277 275 275 273 272 271 271 270 269 269 268 268 268 268 269 269 269 269

GFSGL_925_thetae_027.txt.gz
Theta_e
301 300 296 295 294 293 293 293 293 293 293 294 295 295 295 294 293 293 291 290 289 289 288 287 287 286 286 286 285 284 284 283 284 284 283 283 283 284 285 285 286 288 288
298 295 295 294 294 293 293 293 292 292 292 293 294 294 294 294 293 292 290 289 288 288 287 286 286 286 285 285 284 283 283 283 282 283 282 282 283 284 284 285 286 287 288
295 295 294 294 294 293 293 292 293 293 293 294 294 294 294 293 289 288 288 288 286 286 286 286 285 284 284 283 283 282 282 282 282 281 282 282 282 282 284 285 285 286 287
294 294 294 294 294 293 293 293 292 292 293 294 294 292 291 289 288 288 287 286 286 286 285 284 283 282 282 281 281 281 281 281 281 281 281 281 282 282 284 284 285 285 286
294 294 294 294 294 293 292 291 292 292 293 291 291 289 288 287 287 287 287 286 285 283 282 281 280 280 279 279 280 280 280 280 280 281 281 281 282 282 282 283 284 284 286
293 293 294 294 293 292 291 292 291 292 292 291 290 288 287 286 285 285 284 284 282 281 280 279 279 278 279 279 279 279 279 280 281 281 281 283 282 283 282 282 283 284 285
293 292 294 293 292 291 291 291 290 292 290 290 290 287 286 285 284 283 282 282 280 280 279 279 279 279 278 279 279 280 280 280 280 280 281 281 281 281 282 282 283 283 283
293 293 293 292 291 291 290 290 290 291 290 290 288 286 285 283 282 281 280 280 280 279 279 278 278 278 278 278 280 280 280 279 280 281 281 282 281 281 281 282 283 283 283
293 293 292 292 291 290 290 289 289 289 290 288 286 285 283 282 281 280 280 280 279 279 279 278 278 278 278 279 279 279 279 279 280 279 280 281 281 281 281 281 282 283 284
292 292 292 291 290 289 289 288 287 288 288 287 285 284 283 282 281 280 279 280 279 279 279 278 277 277 277 278 278 278 278 279 279 279 280 280 281 281 281 281 281 282 282
292 291 291 290 290 289 288 287 287 287 286 285 284 283 282 281 280 279 279 280 279 279 278 277 276 276 277 276 276 277 278 277 278 278 279 280 281 281 282 282 282 282 282
291 290 290 289 289 289 288 287 286 286 285 284 283 283 282 281 281 279 278 279 278 278 277 276 276 275 275 275 275 276 275 276 277 278 279 280 280 281 281 282 282 282 282
289 289 289 289 288 288 287 287 286 285 285 285 284 284 283 282 281 279 278 278 278 277 277 275 274 274 273 274 274 274 274 275 276 277 277 278 279 279 280 282 283 283 283
289 289 289 288 288 288 287 286 285 285 285 284 284 284 283 282 281 280 279 279 278 277 275 274 273 273 273 273 274 274 273 273 274 275 276 277 278 279 281 281 283 283 285
288 288 289 288 288 288 287 286 285 285 285 285 284 283 283 283 282 280 279 279 278 277 275 274 274 273 273 273 274 273 272 272 273 274 275 276 277 278 280 281 281 283 284
287 288 288 288 288 287 287 286 285 285 285 284 283 283 283 282 282 280 280 278 277 276 275 275 274 273 273 272 273 273 272 271 271 273 274 275 276 277 278 280 280 281 282
287 287 288 287 288 287 286 286 286 286 285 283 283 282 282 282 281 281 280 278 277 276 276 275 274 273 273 272 272 272 272 271 269 271 272 273 274 275 277 278 279 279 280
287 287 287 288 288 287 287 286 286 285 285 284 283 282 282 282 282 281 280 278 278 277 276 275 275 274 273 273 272 271 271 270 270 269 271 272 272 274 276 276 277 277 278
287 287 287 287 286 286 286 285 284 284 284 283 283 283 282 282 281 281 280 279 279 278 277 276 275 274 274 273 272 271 270 270 269 269 270 271 271 272 274 274 275 275 276
287 287 286 286 286 285 285 284 285 284 284 284 283 283 282 281 281 281 280 279 278 278 278 277 276 275 274 273 272 271 271 271 270 270 269 270 270 271 272 273 273 275 275
286 286 286 285 286 285 285 285 285 284 284 284 283 283 282 281 282 282 281 280 280 279 278 277 277 275 274 273 272 272 271 271 270 269 269 270 270 270 271 272 273 273 274
286 286 285 285 285 285 285 284 285 284 283 283 283 283 283 282 281 281 281 280 280 280 280 278 277 276 275 274 273 273 271 271 270 269 269 269 270 270 270 271 271 272 273
286 286 286 285 285 285 284 284 284 283 283 283 282 282 282 281 281 281 281 281 281 281 280 279 278 277 276 275 274 273 272 271 271 269 268 268 269 270 270 271 271 271 271
286 286 286 285 285 285 284 283 283 283 283 282 282 282 282 282 281 282 282 282 281 281 281 280 279 278 277 276 274 274 272 272 271 270 269 268 269 269 269 270 271 270 271
284 284 285 286 286 285 284 283 282 283 283 282 282 282 282 282 282 282 282 282 282 281 281 280 279 278 277 276 275 274 273 272 271 270 269 268 268 268 268 269 270 270 270
283 284 285 285 285 285 284 284 284 284 283 283 283 283 283 283 282 283 282 282 282 281 280 280 279 278 278 277 275 274 273 272 271 271 269 268 268 269 269 269 269 270 270

GFSGL_925_thetae_030.txt.gz
Theta_e
304 303 301 299 298 298 297 296 296 295 295 294 294 294 295 295 295 295 295 294 293 292 291 291 290 290 289 288 288 287 287 287 287 286 286 286 285 285 285 286 286 287 287
301 300 299 298 298 297 296 296 295 295 294 294 295 295 295 295 295 295 294 292 291 291 291 290 289 288 288 287 287 286 286 285 285 285 285 284 284 284 284 284 285 285 286
299 298 298 298 297 296 296 296 295 294 294 294 294 295 294 294 293 292 291 291 290 290 289 289 288 287 286 285 285 285 284 284 284 284 284 283 283 283 284 284 286 286 286
298 297 297 297 297 297 296 295 294 294 294 294 293 292 292 292 291 290 290 290 290 289 288 287 285 284 284 283 283 283 283 283 283 283 283 283 283 283 284 284 284 285 286
297 297 297 297 297 296 296 295 293 293 293 293 293 292 291 291 289 290 290 289 288 287 285 284 283 282 280 280 280 281 281 281 282 282 283 283 283 283 284 284 284 284 284
297 296 296 296 296 295 294 293 293 293 293 293 292 291 291 289 287 286 285 286 286 285 284 283 283 282 281 280 280 280 280 280 282 282 282 283 283 283 283 284 283 284 286
296 295 295 296 295 294 293 293 292 292 293 292 292 291 290 290 285 284 283 284 284 283 283 282 282 281 281 281 280 280 281 281 281 281 281 282 283 283 283 283 283 283 284
295 295 295 294 294 293 293 292 292 292 292 292 291 291 290 288 284 283 282 283 284 283 282 282 282 281 281 279 279 280 280 281 281 281 281 281 281 281 282 283 283 283 283
294 294 294 294 293 293 292 292 292 291 291 291 291 290 289 287 284 282 281 283 284 283 282 282 280 279 279 278 279 279 279 280 280 280 280 280 280 281 281 282 282 283 284
294 293 293 293 292 292 292 292 291 290 290 290 290 289 287 286 283 281 281 283 283 282 282 281 280 278 277 277 277 278 279 279 279 279 280 281 281 282 282 282 283 283 283
293 293 293 292 292 291 291 291 291 290 290 289 288 287 286 285 285 282 280 281 282 281 281 281 280 277 276 276 276 277 278 277 278 279 280 281 281 282 282 283 284 284 284
292 292 291 291 291 290 291 291 290 290 289 289 287 286 287 285 284 282 280 279 279 280 280 280 279 276 275 275 275 275 275 276 278 279 280 280 281 281 282 283 283 284 284
291 291 291 291 290 290 290 290 290 289 289 288 288 287 287 286 285 283 281 279 279 279 279 278 276 275 275 276 276 275 275 276 277 278 279 279 280 280 282 283 283 284 285
291 291 291 291 291 290 290 289 289 289 289 288 287 287 286 286 285 284 283 282 281 280 280 278 277 275 276 276 277 277 276 275 276 277 278 278 279 280 281 282 283 285 287
290 290 290 290 290 290 289 289 289 288 288 287 287 286 285 285 285 284 282 282 281 280 278 278 279 278 278 277 277 277 276 275 275 276 277 278 278 279 280 281 282 283 285
289 289 290 289 289 289 289 288 288 287 286 285 285 284 284 284 283 282 281 280 279 278 278 280 280 279 278 278 277 277 276 276 274 274 276 277 277 278 279 280 281 282 283
288 289 289 289 289 289 289 288 288 288 287 286 285 284 283 283 283 282 281 281 280 278 279 281 280 279 279 278 277 277 276 275 274 274 274 275 276 277 278 279 280 280 281
288 288 288 288 288 288 289 289 288 288 287 287 286 284 283 283 282 282 281 281 281 280 279 280 280 280 279 278 277 276 275 275 275 274 274 274 275 275 277 278 278 278 279
289 289 288 287 287 287 287 287 287 288 287 286 286 285 284 283 282 282 282 282 281 282 282 281 280 280 279 278 277 276 275 275 274 273 274 274 274 274 275 276 277 277 278
289 288 287 287 287 287 286 287 287 287 287 286 286 285 285 283 283 283 282 282 282 281 282 281 281 280 279 278 278 277 276 276 275 274 274 274 274 274 274 275 276 276 277
289 289 288 287 287 287 287 287 286 286 287 287 286 285 284 284 284 283 283 283 282 282 282 281 281 280 279 279 278 277 276 276 275 274 273 273 273 274 274 274 274 275 276
289 288 288 288 288 287 286 287 287 287 286 286 286 285 284 283 283 283 283 283 283 282 282 281 281 281 280 279 278 278 277 276 275 275 273 272 273 274 274 274 274 274 275
288 287 287 287 287 286 286 286 286 286 286 286 286 286 285 284 283 283 283 283 283 282 282 281 281 281 280 279 278 277 277 276 275 274 272 272 273 274 273 274 274 274 274
287 286 286 286 286 287 287 286 286 286 285 285 286 285 285 285 284 284 283 283 283 282 282 281 281 280 280 279 277 276 276 275 274 273 271 271 272 273 273 273 274 273 274
285 284 284 284 285 286 286 286 285 285 285 285 285 285 285 285 285 284 284 284 283 283 282 281 280 280 279 278 278 277 276 274 273 272 271 270 271 271 271 272 272 273 273
285 285 284 284 285 285 285 286 285 285 285 285 285 285 285 285 285 285 285 284 284 283 282 282 281 280 279 279 278 277 276 275 273 272 271 271 271 272 272 272 272 272 273

GFSGL_925_thetae_033.txt.gz
Theta_e
307 307 304 303 301 300 300 299 298 297 297 296 295 296 296 295 295 296 296 296 295 294 294 293 293 292 291 291 290 289 289 289 290 289 288 287 287 286 286 286 286 286 286
306 303 303 301 300 300 299 298 297 297 296 295 295 296 295 295 295 295 295 294 294 293 292 292 291 291 289 289 288 288 287 287 287 287 286 286 285 285 285 285 285 285 286
304 303 301 300 300 300 298 298 297 296 295 295 295 295 295 294 293 293 293 292 292 291 291 291 289 288 288 287 286 286 285 285 285 285 285 285 284 284 284 285 285 285 286
302 302 300 300 300 299 298 298 297 296 295 295 295 295 294 293 292 292 292 291 291 290 289 288 287 287 286 285 283 283 283 284 283 283 283 284 284 284 285 285 285 285 285
303 300 300 299 298 298 298 297 296 295 295 295 294 294 293 292 291 291 291 290 289 288 288 287 286 285 283 282 282 282 282 282 282 282 283 284 284 284 284 284 284 284 285
300 299 299 298 297 297 297 296 295 294 294 294 294 293 292 292 290 289 287 287 287 287 287 286 285 284 284 282 282 281 281 281 282 283 282 283 283 283 284 284 284 285 286
299 299 298 296 297 296 295 294 294 294 294 294 294 293 293 292 289 288 285 285 286 286 286 285 285 284 284 283 282 281 281 281 281 282 282 283 283 282 282 283 283 284 284
298 298 296 296 296 295 294 294 294 294 294 293 293 293 292 291 289 287 284 284 286 286 285 285 284 284 282 280 279 280 280 281 281 281 281 281 281 281 281 281 282 283 283
297 296 295 295 295 294 294 294 294 293 293 293 293 293 292 290 288 286 284 284 286 285 285 284 283 282 281 279 278 279 279 280 281 280 280 280 280 281 281 281 283 283 284
296 295 294 294 294 294 293 293 293 293 292 292 291 291 291 290 287 286 284 284 285 285 284 284 283 280 279 277 277 278 278 280 279 278 279 281 281 282 283 283 284 284 284
294 294 294 293 293 293 293 293 293 292 292 292 291 290 290 289 288 285 284 282 284 284 283 283 283 281 279 277 277 277 278 276 277 279 280 281 282 282 282 283 283 284 285
293 293 293 292 292 292 292 292 292 292 292 291 290 289 289 288 287 285 284 282 281 281 282 282 282 279 277 277 277 277 276 276 279 279 280 281 281 281 281 282 283 284 284
292 292 292 292 292 292 292 292 292 291 291 291 290 290 289 288 288 286 284 283 281 281 282 281 279 278 278 278 278 277 277 278 278 278 279 280 280 280 281 282 283 283 285
292 292 292 292 292 292 291 291 291 290 290 290 290 289 289 288 287 287 284 283 282 282 282 282 280 280 280 280 279 280 279 279 277 278 278 279 280 280 281 281 282 283 285
291 291 291 291 292 291 291 291 291 290 290 289 289 289 288 288 286 286 286 285 284 283 281 280 281 282 281 281 281 280 279 279 278 277 277 278 278 279 280 280 282 283 284
291 291 291 291 291 291 290 290 290 289 289 288 288 287 287 286 285 285 284 282 282 281 280 281 282 282 282 281 281 280 280 279 278 277 277 277 278 278 279 280 281 281 282
290 290 290 290 291 290 290 290 290 289 289 288 288 287 286 285 284 284 283 282 281 280 280 281 282 282 282 281 281 280 279 279 277 277 277 277 277 277 278 279 280 280 280
290 290 290 291 291 289 289 289 289 289 289 289 289 288 286 285 284 283 283 282 282 281 281 282 282 282 282 281 281 280 279 279 278 277 277 277 277 277 277 278 278 279 279
291 291 291 291 290 289 288 288 288 288 288 288 288 288 287 286 284 283 282 283 283 283 283 283 283 283 282 281 281 280 279 278 277 277 277 277 277 277 277 277 277 278 278
292 292 291 290 290 289 288 288 288 288 288 288 288 288 287 286 285 283 283 283 283 283 283 283 283 283 282 282 281 280 279 279 279 278 277 277 277 276 277 277 277 277 278
292 292 291 290 290 289 289 289 288 288 288 287 287 287 287 286 286 286 285 285 284 284 283 283 283 282 282 281 280 280 279 279 278 278 277 277 276 276 277 277 277 277 276
291 291 290 290 290 289 289 288 288 287 287 287 287 287 287 285 285 285 285 285 284 284 284 283 283 283 282 281 281 281 280 279 278 278 277 276 275 276 277 277 277 276 276
289 289 289 289 288 287 287 288 287 287 287 287 287 287 287 287 286 285 284 284 284 284 284 284 283 282 282 281 281 280 280 279 278 278 276 275 275 276 276 276 276 276 276
288 288 288 287 286 286 286 286 287 287 287 287 286 286 286 287 287 286 285 285 285 284 284 284 283 282 282 281 281 279 279 278 277 276 274 274 274 275 275 275 275 276 275
287 288 287 286 286 286 286 286 286 286 286 286 286 286 286 286 286 286 286 286 285 285 285 284 283 283 282 281 281 280 278 277 276 276 275 273 273 273 273 274 274 274 275
285 286 287 286 285 285 285 285 285 285 285 285 285 286 285 285 285 285 285 285 285 285 285 285 284 283 282 281 281 280 279 277 276 274 274 274 274 274 274 274 274 274 275

GFSGL_925_thetae_036.txt.gz
Theta_e
310 308 307 306 303 302 301 301 299 298 298 297 296 296 296 296 296 295 295 295 295 295 294 293 293 292 292 291 290 289 288 288 287 287 287 287 286 286 285 285 285 285 285
308 308 306 303 302 301 300 300 298 298 298 297 296 295 296 296 295 294 294 294 293 293 292 292 291 291 290 288 288 287 286 285 285 285 285 285 285 284 284 285 285 285 285
308 305 304 303 301 300 300 299 298 298 297 296 295 295 295 295 293 293 293 293 292 292 291 291 290 288 287 287 286 284 283 284 284 283 283 283 283 283 284 284 284 285 285
306 305 303 302 301 301 300 298 298 297 296 295 295 295 295 294 293 293 292 292 291 290 289 288 288 287 286 285 284 283 282 282 282 282 282 282 283 283 284 283 284 284 284
306 302 302 301 300 300 298 298 298 297 295 295 295 295 294 293 293 292 291 290 289 288 287 287 287 286 285 284 283 283 282 282 281 281 281 282 282 282 282 283 283 284 284
304 302 301 300 298 298 298 297 297 296 295 295 295 294 294 293 292 290 289 288 287 287 287 287 286 285 285 284 283 282 281 281 281 281 282 282 282 283 282 282 282 282 282
302 301 299 299 297 297 297 296 295 294 295 294 294 294 294 293 292 291 289 287 286 286 286 286 286 285 284 283 282 281 279 281 281 281 281 282 282 281 281 281 281 281 282
299 299 299 297 297 296 295 295 295 294 294 294 294 293 294 293 292 290 288 286 286 286 286 286 285 284 283 282 281 279 279 279 279 280 281 280 280 280 280 281 281 282 282
299 298 297 296 295 295 295 294 294 294 294 294 293 293 293 293 290 289 287 285 285 285 285 285 284 284 283 281 280 277 278 278 279 279 278 279 280 281 281 282 283 282 283
296 295 295 294 294 294 294 294 294 293 294 293 293 292 291 290 290 288 286 285 284 284 285 284 284 282 281 280 278 277 277 278 278 277 278 280 280 281 282 282 282 283 283
295 294 293 294 294 293 293 293 293 292 293 293 292 291 291 290 289 288 286 286 284 284 284 283 283 282 281 280 278 277 277 277 277 278 279 280 281 281 281 281 281 282 284
295 294 293 293 293 293 293 293 292 292 293 292 292 291 290 290 289 288 287 286 284 282 281 282 282 282 280 279 278 278 278 278 278 278 278 279 280 280 280 281 281 282 283
293 292 292 292 293 292 292 292 292 292 292 291 291 291 290 290 289 288 288 286 284 282 282 281 281 281 280 280 280 279 278 279 279 278 278 278 278 279 280 280 280 281 282
292 292 292 292 292 292 292 292 292 292 291 291 290 290 290 290 289 288 287 285 284 282 282 282 282 281 281 281 281 281 280 279 279 278 278 277 278 278 279 279 280 281 282
292 292 291 291 291 292 291 291 291 290 290 290 290 290 290 289 289 288 287 286 285 284 283 282 281 281 283 282 281 281 281 280 279 278 277 278 278 278 278 278 280 281 281
291 291 291 291 291 291 291 291 291 290 290 289 289 288 288 288 288 287 286 285 285 283 281 281 281 282 283 282 281 281 281 280 279 278 278 277 278 277 277 278 279 280 280
290 291 290 290 291 291 291 290 289 289 289 290 290 289 288 288 286 286 285 284 283 282 281 280 280 282 283 282 282 281 281 280 279 278 277 277 277 277 277 278 278 279 279
291 291 291 290 291 292 291 290 289 289 288 288 288 289 289 288 287 286 285 284 283 282 282 281 281 282 282 282 282 281 281 280 279 278 277 277 277 277 277 278 277 277 277
292 291 291 291 292 291 290 290 289 288 288 288 288 288 288 288 287 287 285 284 283 283 283 282 281 282 283 283 282 281 281 279 278 278 277 278 277 277 277 277 277 277 277
292 292 292 292 292 291 291 290 289 289 288 288 288 288 288 288 287 286 285 284 283 283 283 283 283 283 283 283 282 281 281 279 279 279 278 277 277 276 276 277 277 277 277
291 291 291 291 291 291 290 290 289 289 289 288 288 288 288 287 288 286 285 284 284 284 284 283 283 283 282 283 282 281 280 280 279 278 278 277 277 275 276 277 277 277 276
289 289 290 289 289 289 289 289 288 288 288 288 287 287 287 287 287 287 286 286 286 285 285 284 284 283 283 283 282 282 280 280 279 279 278 277 276 276 276 276 277 277 276
286 286 287 289 288 288 288 287 287 287 287 287 288 287 287 287 287 287 286 285 285 285 285 285 284 284 283 283 282 282 281 281 279 279 278 277 276 276 276 275 276 276 275
284 284 285 286 287 287 287 286 286 286 286 287 288 287 286 286 286 286 287 286 286 285 285 285 284 284 284 283 283 282 281 281 279 279 278 277 275 275 275 275 275 275 275
283 284 284 286 286 287 287 286 286 285 285 285 285 286 286 286 285 285 285 286 286 286 286 285 285 285 284 284 283 282 282 281 279 278 277 275 274 274 274 273 274 274 274
280 281 284 285 285 286 284 283 282 282 281 280 280 281 281 282 282 284 285 285 285 285 285 285 285 285 285 284 284 282 282 281 279 278 276 275 274 274 274 274 275 274 274

GFSGL_925_thetae_039.txt.gz
Theta_e
314 309 307 306 306 303 302 301 300 300 298 298 297 296 295 295 296 295 294 293 294 293 293 292 292 291 291 289 288 287 286 285 284 284 284 284 283 283 283 283 283 283 285
310 308 307 306 303 302 301 300 300 299 298 298 296 295 295 296 295 294 293 293 293 292 292 291 291 290 288 287 287 286 285 283 283 282 282 282 282 282 282 283 283 284 283
309 307 306 304 302 302 301 301 299 298 298 297 296 295 295 295 294 293 293 292 292 292 291 289 289 288 287 287 285 284 284 283 282 282 281 281 281 281 282 282 282 282 283
308 306 304 303 302 302 301 300 299 298 297 296 296 295 295 295 294 293 292 292 291 290 289 288 287 286 285 285 285 284 283 282 282 281 281 280 281 281 282 282 282 282 282
305 304 303 302 300 300 301 299 298 298 297 296 295 295 294 294 294 293 292 292 290 289 288 287 286 286 285 285 284 283 283 282 281 281 280 280 281 281 281 282 281 280 280
304 302 301 302 302 298 298 297 297 297 296 295 295 294 294 294 293 293 291 290 289 288 287 286 286 286 285 284 283 282 281 280 280 280 280 280 281 281 281 280 280 280 280
303 302 301 299 298 298 297 296 295 295 295 294 294 294 294 294 293 293 292 290 288 287 286 286 286 285 285 284 283 282 281 279 278 279 279 280 279 279 280 280 280 280 280
299 299 299 298 296 295 294 294 294 295 294 295 294 294 293 293 293 293 291 290 287 286 285 286 285 285 284 283 283 281 281 277 277 278 279 278 278 279 280 281 281 282 281
298 296 295 294 294 294 294 294 294 293 294 294 294 293 293 292 293 291 290 288 286 286 285 285 285 284 283 282 281 281 278 276 277 278 277 279 279 280 281 282 282 281 281
295 295 295 295 294 293 293 293 293 294 293 293 293 293 292 291 291 291 290 288 286 285 285 284 284 283 282 282 281 279 277 277 277 277 278 278 279 280 280 280 280 281 281
294 294 293 293 293 293 293 293 293 293 292 292 292 292 292 291 291 290 289 287 287 285 284 284 283 283 282 281 280 278 278 278 278 278 278 277 278 278 279 279 280 281 281
294 293 293 293 293 292 293 293 292 292 292 292 292 292 291 291 290 289 289 288 286 285 284 283 282 282 282 281 280 279 279 279 278 279 278 278 277 277 278 279 279 279 281
293 293 292 292 292 292 292 292 292 292 291 291 291 290 290 290 290 290 289 288 286 285 285 283 282 281 281 281 281 280 280 279 279 279 279 277 277 277 277 277 278 280 280
292 292 292 292 292 291 291 291 292 291 291 290 290 290 290 290 290 290 289 288 287 286 285 283 282 282 282 281 282 281 281 280 280 279 278 278 277 278 277 277 278 279 280
292 292 291 291 291 291 291 291 290 291 291 290 290 289 289 289 289 289 288 287 287 286 285 283 282 282 281 281 282 281 281 281 280 279 278 278 277 277 277 277 277 278 279
291 291 290 290 290 291 290 290 291 290 290 289 288 289 289 289 288 288 288 288 287 285 284 283 282 281 281 281 282 282 281 281 280 279 278 278 277 277 277 277 277 277 277
291 291 291 291 290 290 290 290 290 290 290 289 288 288 288 288 288 288 287 287 286 284 283 282 281 281 280 280 282 282 281 281 279 279 278 278 277 277 277 277 277 277 276
292 292 291 291 291 291 290 290 290 290 289 288 289 288 288 288 288 288 287 286 285 283 283 282 282 281 281 280 282 282 281 280 280 279 278 277 277 277 277 276 277 277 276
291 291 291 291 291 291 290 290 290 290 289 289 288 288 288 288 288 288 288 286 284 283 283 282 282 282 281 281 281 282 282 281 280 279 278 278 277 276 276 276 277 277 277
288 287 287 288 288 289 290 290 290 289 288 288 287 288 288 288 288 287 286 286 284 284 283 283 282 282 282 282 282 283 282 281 280 279 279 278 277 277 276 276 277 277 276
284 285 285 285 286 287 288 288 288 288 288 288 287 287 287 287 287 287 287 286 284 284 284 283 283 283 283 283 283 282 282 281 281 280 279 278 277 277 276 276 276 277 276
282 282 282 283 283 284 285 286 287 286 287 287 286 286 286 287 287 287 286 286 286 286 285 284 284 284 283 283 283 282 282 282 281 280 279 278 277 277 276 276 276 276 276
279 280 281 281 282 283 284 285 286 287 286 286 286 286 286 286 287 286 286 286 286 286 286 285 285 285 285 284 284 283 282 282 282 280 279 279 278 277 275 276 275 275 275
278 279 279 279 280 283 284 285 285 286 286 285 284 283 283 284 286 285 285 285 286 286 286 285 285 285 285 285 284 284 283 283 282 281 280 279 278 277 275 275 275 274 274
274 275 274 275 276 277 279 279 280 279 279 279 278 278 278 279 280 280 281 282 285 285 285 285 285 285 285 285 285 284 284 283 282 281 280 279 278 276 275 275 274 274 274
271 272 270 271 271 273 274 275 275 275 275 274 274 275 275 276 276 276 276 277 279 281 284 285 285 285 285 284 284 284 284 283 282 281 280 279 277 275 274 274 274 274 274

GFSGL_925_thetae_042.txt.gz
Theta_e
317 316 311 306 305 305 303 301 300 300 300 300 299 297 296 295 295 295 294 294 293 293 292 292 292 291 290 289 288 287 286 285 283 283 283 282 282 281 280 281 281 282 283
317 311 307 306 306 303 302 301 301 301 300 299 298 296 295 295 295 295 294 293 293 292 292 291 291 290 289 288 287 286 285 283 283 282 282 282 281 280 280 281 281 281 282
310 307 306 305 303 302 301 301 301 300 298 297 296 296 296 295 295 295 294 293 292 292 291 289 288 287 287 287 286 285 284 283 282 282 281 281 280 280 280 281 281 281 281
308 307 306 304 302 301 301 301 300 299 297 297 297 296 295 295 295 294 293 292 292 292 290 289 288 287 286 285 285 284 283 282 282 281 281 280 280 280 280 280 281 281 280
307 306 304 302 301 300 300 300 299 297 297 296 295 294 294 295 294 294 294 293 292 291 290 288 287 286 286 285 284 283 283 282 281 280 279 280 280 280 280 280 280 279 279
304 303 301 301 301 300 298 297 297 297 295 294 294 294 294 294 294 294 293 292 291 290 289 287 286 286 285 285 284 283 282 281 280 278 279 278 278 279 278 278 279 279 280
302 301 300 298 298 297 297 296 295 295 295 294 294 294 294 294 294 293 293 291 290 290 287 286 286 286 285 284 283 282 282 281 280 277 278 278 278 278 279 279 279 280 280
299 298 297 296 295 295 295 295 295 295 294 294 294 294 294 294 293 292 293 291 290 289 286 286 285 285 285 284 283 282 281 281 278 277 278 278 278 279 280 280 281 281 281
295 294 295 295 295 296 297 297 295 294 293 293 294 293 293 293 293 292 292 291 290 288 288 286 285 284 284 283 282 281 281 280 277 278 278 278 278 279 280 280 280 280 280
295 296 296 298 298 297 295 293 293 293 293 292 292 292 292 292 292 292 291 291 290 288 287 286 285 284 284 282 281 282 280 279 278 278 278 278 277 277 277 278 279 279 280
299 299 299 296 294 293 293 293 292 292 292 292 292 292 292 292 292 291 291 290 289 288 286 286 284 284 283 282 282 281 279 279 279 278 278 279 278 277 277 277 278 278 279
295 294 293 293 293 292 292 292 292 292 292 291 291 291 291 291 291 291 290 289 289 287 286 286 285 283 282 282 282 280 280 280 279 279 278 279 278 277 277 277 277 278 279
293 293 292 291 291 292 291 291 291 291 291 291 291 290 290 290 290 290 290 290 289 287 287 286 285 283 281 281 281 281 281 281 280 280 279 279 278 277 277 277 277 278 279
292 292 291 291 291 291 290 290 291 291 290 290 290 290 290 289 289 289 289 290 289 287 287 286 285 283 282 282 282 281 281 281 281 280 279 279 278 277 277 277 277 277 277
292 292 291 291 291 290 289 289 290 290 290 290 290 290 289 289 289 289 289 288 289 288 287 286 284 282 282 282 282 281 282 281 281 280 279 278 278 277 277 276 277 276 276
291 291 291 291 291 291 290 290 290 290 290 290 290 290 289 288 288 288 288 288 288 288 286 284 283 283 282 282 281 281 281 282 281 281 279 278 278 277 277 276 277 277 276
291 290 290 290 289 289 288 288 288 289 289 290 290 289 289 288 288 287 287 288 288 287 284 284 283 283 283 282 281 280 280 282 281 281 279 278 277 276 277 276 276 277 276
286 286 286 285 286 286 287 288 288 288 288 288 289 289 290 289 288 288 287 287 287 286 284 284 283 283 283 282 281 280 280 282 281 280 279 278 277 277 277 276 276 276 276
284 284 284 284 284 284 284 285 286 287 288 288 288 288 289 288 287 287 287 287 286 285 284 283 283 283 283 282 281 281 281 281 282 280 280 278 278 277 276 276 276 276 276
281 281 281 281 281 282 282 283 283 284 286 287 287 287 287 287 286 286 286 287 286 286 285 283 283 283 283 283 282 282 281 281 281 281 280 279 278 277 276 276 276 276 276
277 278 279 279 280 281 280 281 282 283 284 285 287 287 287 286 286 285 285 286 286 286 285 284 283 284 283 283 283 282 282 282 282 281 281 279 279 278 277 276 276 276 276
276 277 277 278 278 278 278 280 282 283 284 285 285 286 286 285 284 284 285 286 286 286 286 285 284 284 285 283 283 283 282 283 282 282 281 280 279 278 277 276 275 275 275
274 274 274 273 274 274 276 277 278 277 279 282 283 283 281 280 281 282 283 285 285 285 285 285 284 284 285 284 284 284 283 283 283 282 282 280 279 278 277 276 275 275 275
272 271 270 270 270 271 272 273 274 273 274 274 274 274 275 276 277 277 278 278 281 281 283 285 285 284 285 285 285 284 284 284 283 283 282 281 280 279 277 276 275 275 274
269 269 268 268 268 268 269 270 270 270 270 271 271 272 272 273 272 272 273 274 275 278 280 282 284 285 285 285 285 285 285 284 284 284 283 282 280 279 278 276 275 275 274
267 267 267 266 266 266 266 267 267 267 268 268 269 269 269 270 269 269 270 271 272 274 275 278 281 283 284 284 284 284 284 284 284 283 283 282 280 278 277 276 274 274 274

GFSGL_925_thetae_045.txt.gz
Theta_e
324 321 319 315 313 313 311 306 304 305 302 300 302 301 298 295 295 295 295 294 293 293 292 292 292 291 291 290 289 288 287 285 284 284 283 283 282 282 280 280 280 281 281
319 316 313 312 311 307 305 305 304 300 300 302 300 298 296 295 295 295 294 294 294 293 292 292 291 290 290 288 287 287 285 284 283 282 282 282 282 281 279 280 280 280 281
314 310 309 308 305 305 303 301 299 301 301 299 297 296 296 295 295 295 294 294 293 292 292 292 291 289 288 287 286 285 284 283 282 281 281 281 280 279 279 280 280 280 280
309 309 306 304 303 302 301 300 301 300 299 297 296 296 295 294 294 294 294 294 293 292 292 291 289 289 288 286 285 285 284 283 282 282 281 280 279 279 279 280 279 279 279
307 305 304 303 302 301 300 300 299 297 296 295 295 295 294 294 294 294 294 294 293 292 291 290 288 287 286 286 285 285 283 283 282 281 279 278 278 278 279 278 278 278 279
306 304 303 302 300 300 298 296 295 295 297 298 297 295 295 294 294 294 294 294 293 292 291 290 289 287 286 285 285 284 283 282 281 280 279 277 277 278 278 277 278 278 279
304 302 300 298 296 296 296 297 299 299 298 297 296 294 294 294 294 294 293 293 293 292 290 290 289 286 286 285 284 283 282 282 281 280 277 277 278 278 278 278 279 279 280
298 297 295 295 295 298 299 299 298 297 296 294 293 293 293 293 293 293 293 292 292 290 289 288 286 286 286 285 284 283 282 281 281 279 277 278 278 278 279 279 280 279 279
295 295 296 298 299 298 297 297 296 295 293 293 293 293 292 292 292 292 292 292 291 290 291 291 286 288 285 284 284 282 281 281 281 278 278 278 278 278 278 278 278 278 278
296 298 298 299 299 297 296 294 293 293 292 292 292 292 292 291 292 291 292 291 291 291 290 289 287 286 285 284 283 282 281 281 279 278 278 278 278 278 278 277 277 277 278
299 300 299 295 294 293 293 293 292 292 292 292 291 291 291 291 291 291 291 290 290 290 289 288 288 286 285 284 283 282 282 281 279 279 279 279 279 278 278 277 277 276 277
294 293 293 293 292 291 291 291 291 291 291 290 290 291 291 291 290 290 291 290 290 289 289 289 288 286 285 283 282 282 281 280 280 280 280 279 279 278 277 277 277 277 277
292 292 291 291 291 291 291 290 290 290 290 290 290 290 289 290 290 290 290 289 289 289 288 288 288 286 285 284 282 282 281 281 280 280 280 280 279 278 277 277 276 277 276
291 291 291 291 291 290 290 289 289 289 289 289 288 288 289 290 290 290 289 289 289 289 289 288 287 285 284 284 282 281 281 281 281 281 281 280 279 278 277 276 276 277 276
291 290 290 290 289 289 289 289 289 290 289 289 288 288 288 288 290 289 288 287 288 288 288 286 284 283 283 282 282 282 282 281 281 281 281 280 279 278 277 276 276 276 276
287 286 286 285 284 284 285 285 285 286 287 287 288 288 288 288 289 289 289 288 287 287 287 285 283 283 282 282 282 282 282 282 281 281 281 280 279 278 277 276 276 276 276
283 283 283 283 283 283 283 283 283 283 284 285 286 287 287 288 288 287 288 288 287 286 286 285 283 283 283 283 282 282 282 282 281 281 281 280 279 278 276 276 276 276 276
282 281 281 280 281 281 281 281 281 281 282 283 283 285 287 287 287 287 288 287 287 286 286 286 284 283 282 283 283 282 282 281 280 281 281 280 279 277 276 276 276 275 276
278 278 278 278 279 279 280 280 279 280 281 281 282 283 284 286 286 287 287 286 286 286 285 285 285 283 283 283 283 283 282 281 280 281 281 280 279 277 277 277 276 275 276
276 277 277 277 278 278 278 278 278 279 278 281 282 282 283 285 286 286 285 285 284 285 285 285 285 284 284 282 282 283 282 281 281 280 281 280 279 278 278 277 276 275 276
275 275 274 275 275 274 274 275 276 278 276 275 275 278 280 283 283 283 283 283 284 284 285 286 286 285 284 283 282 283 282 282 281 281 281 281 280 278 278 277 276 275 275
273 273 272 271 271 271 271 272 273 272 273 273 273 274 274 275 276 278 279 278 279 283 284 285 285 284 284 283 282 283 283 282 282 282 282 282 281 279 278 277 276 275 275
271 270 270 269 269 269 269 269 270 269 269 270 271 272 272 272 272 272 272 272 274 276 279 280 282 284 284 283 283 283 284 283 283 282 282 282 281 280 278 277 276 275 275
269 268 267 267 267 267 267 267 267 267 267 267 268 269 269 270 270 269 269 270 271 273 274 276 278 281 282 283 283 283 284 284 284 284 283 282 281 280 278 277 276 275 275
267 266 266 265 265 265 265 265 265 265 265 265 265 266 267 268 267 267 267 268 268 270 272 273 274 276 280 281 283 284 284 284 284 284 283 283 282 281 279 278 277 275 274
266 266 265 265 264 263 263 263 263 263 263 263 264 264 265 266 265 265 266 266 266 268 270 272 274 274 278 281 283 284 284 284 284 283 283 282 282 281 279 278 276 275 274

GFSGL_925_thetae_048.txt.gz
Theta_e
326 326 326 325 322 318 317 315 312 307 302 302 302 300 302 298 297 295 295 295 294 294 293 292 292 292 292 291 290 290 289 289 286 285 284 283 282 282 281 279 279 279 280
326 326 322 319 315 313 312 309 307 304 302 303 301 302 299 297 295 295 295 295 294 293 293 292 292 291 291 290 289 288 287 286 284 283 283 282 282 281 280 278 278 279 280
324 321 315 313 311 308 306 305 302 302 302 300 300 299 298 295 295 296 295 294 294 294 293 292 292 291 291 289 288 287 286 285 284 282 282 281 281 280 279 278 279 279 278
316 311 309 307 306 305 304 302 302 300 300 299 299 296 295 296 296 294 294 294 294 294 293 292 292 291 290 288 287 286 285 284 283 282 281 281 280 280 277 278 278 278 278
310 308 306 305 304 302 301 299 300 300 298 295 295 296 297 296 295 294 294 294 294 293 293 292 291 290 290 288 287 286 285 284 283 282 281 280 279 278 277 278 277 278 278
306 305 303 302 301 300 299 296 295 296 297 296 297 298 297 296 294 294 293 293 293 293 293 292 291 290 289 288 286 285 285 284 283 281 280 279 279 277 277 277 277 278 279
302 300 299 298 296 295 296 298 299 299 299 299 298 297 295 293 293 293 293 293 293 293 293 292 290 289 288 287 285 286 284 283 282 281 280 280 277 277 278 278 278 278 279
297 296 296 297 298 299 300 300 298 297 297 296 295 294 293 293 293 292 292 292 292 292 292 291 290 289 289 286 287 285 284 283 282 281 280 279 277 278 279 278 278 278 278
296 297 299 299 299 299 298 298 297 296 294 293 292 292 292 292 292 291 291 291 291 292 291 291 290 289 290 286 286 284 284 283 282 281 280 278 279 279 279 278 277 277 277
298 298 299 300 299 296 295 295 293 293 292 292 291 291 291 291 291 291 291 291 291 291 291 290 289 289 289 287 285 284 283 283 282 281 279 278 278 278 278 278 277 277 277
299 297 295 294 293 293 292 292 291 291 291 291 290 290 290 290 290 290 290 290 290 290 290 290 290 289 288 287 285 284 283 283 281 280 279 279 279 279 279 278 277 277 276
293 292 292 291 291 291 290 290 290 289 289 289 289 289 289 289 289 289 290 290 290 290 290 290 289 289 288 287 286 285 283 282 281 280 279 279 280 280 279 278 277 276 276
291 291 291 290 290 290 290 290 289 289 289 289 288 288 288 289 289 290 289 290 289 289 289 289 289 288 287 286 285 284 283 281 281 281 280 280 280 280 279 278 277 276 276
290 289 288 288 287 286 285 285 285 285 286 286 286 287 287 287 287 287 288 289 289 288 287 288 288 288 287 285 285 284 282 282 282 281 280 280 280 280 279 278 277 276 276
286 285 284 283 282 282 282 282 282 283 283 284 284 284 285 285 286 287 287 287 288 288 288 287 286 285 284 284 283 283 283 282 282 281 281 280 281 280 279 278 276 276 276
283 282 281 280 280 280 281 280 280 280 281 281 281 282 283 283 284 285 287 287 287 287 286 286 285 284 283 283 282 282 282 282 282 282 281 280 281 280 279 278 276 276 275
279 279 278 278 279 279 279 279 279 278 279 279 279 280 281 281 282 283 285 286 286 287 286 286 285 284 283 282 282 282 281 282 283 282 282 280 281 280 278 277 276 276 275
277 277 277 277 277 278 278 278 277 277 278 278 277 278 279 279 281 283 284 285 286 286 286 286 286 285 284 283 282 282 282 282 283 282 281 280 281 280 278 277 276 276 275
276 276 275 275 276 276 275 275 275 276 277 276 275 275 274 276 278 281 283 284 285 284 284 284 285 285 285 284 283 282 281 282 283 282 280 280 281 279 278 277 276 276 275
275 274 274 273 273 273 272 272 273 273 273 273 273 272 272 273 274 274 275 276 278 281 283 283 283 284 284 284 283 282 281 281 282 281 280 280 281 279 279 278 277 276 275
273 273 272 271 271 270 270 270 270 271 269 270 270 270 270 271 273 272 272 272 272 272 273 276 280 284 284 284 284 282 281 281 282 281 280 280 280 279 279 278 277 276 275
271 270 270 269 269 268 268 268 268 267 267 267 267 267 268 269 270 269 269 270 269 270 271 271 273 277 279 282 283 282 281 281 282 282 281 280 280 280 279 278 277 276 275
269 269 268 267 267 266 266 266 266 265 265 265 265 265 266 266 267 267 267 267 268 269 270 270 271 273 276 278 279 281 281 281 282 283 281 281 280 280 280 278 277 276 275
268 267 267 266 265 265 264 264 264 264 263 263 264 264 264 264 265 265 265 265 266 267 268 269 270 271 273 275 278 279 281 282 282 283 283 282 281 281 280 279 277 276 275
267 266 265 265 264 264 263 263 263 262 262 262 262 262 262 263 263 263 263 264 264 265 266 268 269 270 272 274 276 278 280 281 282 282 282 282 282 281 281 279 278 276 275
266 265 265 264 264 263 262 262 262 262 261 261 261 261 261 261 261 262 262 262 262 264 265 266 268 270 272 274 275 277 281 281 282 282 282 282 281 281 280 279 278 276 275

GFSGL_925_thetae_051.txt.gz
Theta_e
325 324 323 323 322 321 320 317 314 311 306 301 301 302 301 302 299 296 296 297 295 295 294 294 294 294 293 293 293 292 291 291 291 290 288 286 285 284 284 283 282 281 281
324 325 324 323 321 317 315 314 310 307 304 302 302 301 302 299 296 297 299 296 296 295 295 294 294 293 293 292 292 291 290 289 289 288 287 285 284 284 283 282 281 280 281
323 322 320 317 313 311 310 310 309 305 303 302 301 301 298 297 298 297 296 296 296 295 294 294 294 293 292 292 291 290 289 288 287 286 286 285 284 283 282 282 280 281 280
319 315 311 308 308 308 307 306 304 303 301 301 300 299 300 297 296 296 296 295 294 294 294 294 293 293 292 292 291 290 288 288 287 286 285 285 284 283 282 281 281 281 280
314 310 308 306 305 303 302 301 300 300 299 299 298 297 296 295 297 297 296 295 294 294 294 293 293 293 292 292 290 290 288 287 286 286 286 285 284 283 282 280 280 280 281
307 304 303 303 301 300 299 298 297 296 296 296 297 296 296 298 298 296 294 294 294 293 294 293 293 293 292 291 289 288 288 287 286 286 285 285 284 283 281 280 280 280 281
301 299 298 298 297 296 297 297 298 298 297 297 297 298 297 297 295 293 292 292 293 293 293 293 292 291 292 290 288 289 287 286 286 285 285 284 283 282 280 280 280 280 281
298 297 297 298 299 299 300 300 299 298 298 297 296 296 295 293 292 292 292 291 292 292 291 291 291 291 290 289 288 288 287 287 285 284 283 283 282 280 279 280 280 280 280
298 299 299 299 299 299 298 297 296 295 296 295 293 292 292 291 291 291 291 291 291 291 291 291 291 290 290 290 288 287 286 286 284 284 283 282 281 279 279 280 280 280 280
298 298 299 298 296 295 294 293 293 292 291 291 291 290 290 289 289 289 289 290 290 290 290 290 290 290 290 290 287 287 286 286 284 282 282 281 280 280 279 279 280 280 280
295 294 293 293 292 291 291 290 290 290 289 289 289 289 289 290 290 290 290 289 289 289 290 290 289 290 290 290 289 287 286 286 284 283 282 281 280 280 280 280 280 279 279
291 291 290 290 290 290 290 289 289 289 288 288 287 287 287 287 286 285 285 287 287 288 288 289 289 289 289 289 288 287 287 285 283 283 282 281 281 281 281 280 280 279 279
290 289 288 288 287 286 286 285 285 284 284 285 285 285 284 284 284 285 285 285 286 286 287 288 288 288 288 288 287 286 286 283 283 283 283 282 281 281 281 280 279 279 278
287 286 285 284 283 283 283 283 283 283 282 283 282 282 282 282 283 283 283 283 284 286 287 287 287 287 287 287 286 286 285 284 284 283 283 282 282 281 280 280 279 279 279
285 283 282 282 281 281 281 281 281 281 280 280 280 280 281 281 281 281 281 282 283 284 285 286 286 286 285 285 285 285 285 284 283 283 283 282 281 281 281 280 279 279 278
282 281 280 280 280 280 280 280 279 278 278 279 278 278 279 278 278 279 280 282 283 284 285 286 287 287 286 286 285 284 284 284 284 283 283 282 282 281 281 280 279 279 279
279 279 279 279 279 279 278 278 278 278 277 277 277 276 276 275 276 277 278 279 283 284 285 286 287 287 286 285 285 284 284 284 283 282 282 282 282 281 281 280 280 279 279
278 276 277 277 277 277 276 276 276 276 276 276 275 274 273 273 274 275 275 277 277 277 281 285 286 287 286 286 285 284 284 284 283 282 282 282 281 281 281 280 280 279 279
277 276 275 275 275 274 274 274 274 274 274 273 273 273 271 271 272 273 273 274 274 274 275 275 276 280 284 284 285 284 284 284 283 281 282 282 281 280 281 280 280 278 277
275 273 273 273 273 273 272 272 272 272 272 271 271 270 270 270 271 272 272 271 272 272 272 272 273 275 276 282 284 285 284 283 282 281 281 281 280 280 281 280 279 279 278
273 272 271 272 271 271 270 270 270 270 269 269 269 268 266 268 269 270 270 270 270 270 270 270 271 272 273 275 277 283 283 283 282 281 280 280 280 279 280 280 279 278 278
271 270 270 270 269 268 267 268 268 267 267 267 267 267 266 267 267 268 268 268 267 268 268 268 269 269 270 271 272 275 279 282 281 280 280 280 279 279 279 279 279 278 277
269 268 268 268 267 266 266 265 266 266 265 265 265 265 265 266 265 265 266 266 266 266 266 266 267 268 268 269 270 271 274 277 281 280 280 280 279 279 279 279 278 278 277
268 267 267 266 265 265 264 264 264 263 263 263 263 264 264 264 264 264 264 264 264 264 264 264 265 266 267 269 269 270 272 273 277 280 280 280 280 279 279 279 278 278 277
267 266 265 265 264 263 263 262 262 262 262 262 262 262 262 262 263 263 263 262 262 262 263 264 265 265 267 268 270 272 273 275 277 279 280 280 280 279 279 279 278 277 276
266 266 265 264 263 262 262 261 261 260 260 260 260 260 260 261 261 261 261 261 261 261 262 263 264 265 267 269 271 273 274 275 277 280 280 280 280 279 279 279 278 277 276

GFSGL_925_thetae_054.txt.gz
Theta_e
330 329 328 328 327 324 321 320 319 318 315 311 310 304 302 301 300 301 296 295 295 300 300 298 297 297 296 296 295 295 294 294 294 293 293 292 290 289 288 287 286 285 284
329 329 328 325 322 320 319 316 315 314 311 306 304 303 301 300 302 298 296 296 299 299 298 297 297 296 296 296 295 295 294 294 293 293 292 291 290 289 288 287 286 285 284
328 326 320 317 316 314 313 313 312 309 306 303 303 302 300 301 297 297 298 300 299 299 298 297 297 296 296 296 295 294 294 293 292 292 291 291 290 289 288 287 286 284 284
319 317 313 312 312 310 309 308 305 304 303 302 301 301 300 297 299 299 298 298 299 298 297 297 296 296 296 295 295 294 294 293 292 292 291 290 289 289 288 287 286 284 284
312 311 309 308 306 305 306 305 303 301 301 301 300 299 299 300 298 297 297 298 299 297 296 296 296 296 295 295 294 294 293 293 292 291 291 290 289 288 288 287 285 284 284
308 306 304 304 302 302 302 301 299 299 299 299 298 299 298 297 296 297 297 297 296 296 296 296 295 295 295 294 293 292 292 292 292 291 290 289 289 288 287 286 285 284 285
305 303 302 301 300 300 299 300 299 299 299 299 298 297 297 296 297 297 294 293 294 294 295 295 294 294 293 293 293 293 291 290 289 291 290 289 289 288 286 285 284 284 284
302 301 300 300 301 301 300 300 299 299 299 299 298 298 298 297 295 293 291 292 293 293 293 293 293 293 293 293 293 292 292 290 290 289 287 288 288 287 285 284 283 283 283
302 301 301 301 301 300 300 300 299 299 298 297 296 295 294 294 293 291 289 290 291 291 292 292 292 292 292 292 292 292 292 291 291 289 288 287 285 284 283 283 283 283 284
302 301 301 300 298 298 298 297 296 295 293 293 292 292 292 291 292 291 290 290 291 291 291 291 291 291 291 290 291 291 291 291 291 289 286 285 284 283 282 281 282 283 283
299 297 295 294 295 294 294 293 293 293 293 293 292 291 290 290 289 287 286 286 286 287 287 288 289 290 291 290 290 289 290 291 290 289 288 286 286 285 283 282 282 282 283
296 295 294 293 292 292 292 291 291 290 289 288 287 287 287 286 286 285 284 284 284 285 285 286 287 288 288 288 289 288 288 288 288 288 287 287 286 285 284 283 283 283 282
293 292 291 290 289 288 288 287 287 286 286 286 285 285 285 284 284 284 283 282 282 283 284 284 284 285 286 287 287 287 287 287 287 286 287 286 286 285 284 284 283 282 282
291 289 288 286 286 285 285 285 285 285 284 284 284 283 283 283 282 280 280 281 281 282 284 285 284 284 285 286 286 287 288 287 287 286 286 286 286 285 284 283 283 283 282
287 286 285 285 284 284 283 283 282 282 280 281 281 280 280 280 279 277 278 278 279 280 282 284 285 286 287 288 287 287 287 287 286 286 286 287 286 285 284 283 283 282 282
285 284 283 284 283 283 283 283 280 278 277 278 278 277 277 277 276 276 277 277 278 279 282 284 286 287 287 288 288 288 286 286 286 286 286 286 286 285 284 284 283 282 282
283 282 282 282 282 281 281 281 281 280 278 277 276 275 275 274 274 275 275 275 278 278 280 280 281 282 282 288 287 288 287 286 285 285 286 286 285 285 284 284 283 282 282
280 279 281 281 280 280 280 279 279 279 279 278 277 275 274 273 273 274 274 276 276 277 277 277 278 278 279 281 283 286 287 286 285 285 285 285 285 285 284 284 283 283 282
280 279 279 279 278 277 277 278 277 277 277 277 276 276 274 271 273 274 274 275 274 275 275 275 275 276 276 277 279 280 284 285 286 286 285 284 284 284 284 284 283 283 282
277 275 276 277 277 276 276 276 276 276 276 275 275 274 272 271 273 274 274 274 273 273 273 273 273 274 274 275 276 277 279 283 286 285 284 284 284 284 284 283 283 282 281
277 276 274 275 275 274 274 274 274 274 274 273 273 272 268 268 272 272 272 272 271 271 271 271 271 272 273 273 273 274 275 277 283 284 284 284 284 283 283 283 282 282 282
275 274 274 274 273 273 272 272 272 272 272 272 271 271 269 270 270 270 270 270 270 270 269 270 270 270 271 272 271 271 273 275 278 278 282 282 283 283 282 283 282 282 281
273 273 272 272 271 270 271 270 271 270 270 270 269 269 269 269 269 269 268 268 268 268 268 268 268 268 269 270 270 270 271 273 275 274 275 281 282 282 282 282 282 282 281
271 271 271 271 270 269 269 269 269 268 267 268 268 268 268 268 267 267 267 267 266 266 266 266 266 266 267 268 268 268 269 271 271 271 273 276 282 282 282 282 282 281 281
270 270 270 270 269 269 268 268 268 267 267 267 267 267 267 266 266 266 266 266 265 265 265 264 265 266 266 266 266 267 269 269 269 270 271 276 281 282 282 282 282 281 281
270 269 269 268 268 268 267 267 266 266 266 266 265 265 265 265 265 265 265 265 265 264 264 265 265 265 265 266 267 268 268 271 270 272 273 276 281 282 282 282 282 281 280

GFSGL_925_thetae_057.txt.gz
Theta_e
333 333 331 330 329 328 327 325 323 320 316 313 313 311 310 305 302 301 302 299 298 297 299 301 302 300 300 299 298 298 297 296 297 296 295 295 294 294 293 292 291 290 289
333 332 331 329 328 326 324 323 321 319 314 312 310 307 305 303 302 301 299 298 297 298 300 302 300 300 299 299 298 298 297 296 296 296 295 295 294 293 292 292 291 289 288
331 328 325 324 323 321 320 318 316 312 309 306 305 304 302 301 300 299 298 299 299 300 301 301 300 299 299 299 298 297 297 296 296 296 295 294 294 292 292 291 290 289 289
325 320 318 316 314 313 311 310 308 306 304 304 302 301 300 300 300 299 299 299 300 299 299 300 299 299 298 298 298 297 297 296 296 295 295 294 293 292 292 291 290 289 288
315 313 311 310 309 308 307 305 304 303 302 301 300 300 300 300 299 300 299 298 298 299 299 299 299 298 297 297 297 296 296 296 295 295 295 294 293 292 291 290 290 289 288
311 309 309 309 309 309 307 306 305 302 301 300 300 299 300 299 298 298 297 296 298 298 297 297 297 297 296 296 296 295 295 295 295 295 294 294 293 292 291 290 290 288 288
310 309 309 308 306 305 305 304 303 302 301 300 300 300 299 299 298 298 297 296 295 295 295 295 295 295 295 295 295 294 294 294 294 293 293 293 292 292 291 290 289 288 287
308 307 306 305 305 304 304 303 303 302 302 301 300 300 300 300 296 294 293 292 292 293 293 293 293 293 294 294 293 294 294 293 293 293 291 291 291 291 290 289 288 287 285
307 306 306 305 304 304 303 302 302 301 301 300 298 297 296 296 293 292 291 292 292 292 292 292 292 292 292 292 291 292 292 292 292 292 292 291 291 289 288 288 287 286 286
306 305 304 304 303 302 302 301 299 297 296 295 294 294 294 294 292 289 288 288 287 287 288 288 287 287 287 287 288 290 291 291 291 291 291 290 289 288 288 286 285 285 285
304 302 301 300 300 299 297 296 295 295 295 295 293 292 290 290 289 286 285 285 285 285 285 285 286 286 286 286 287 286 288 288 290 290 291 291 290 288 287 285 284 284 284
300 299 298 296 295 295 295 294 292 291 291 290 289 289 289 288 286 285 284 282 281 282 283 283 284 284 284 284 285 286 286 286 288 289 290 290 290 288 287 286 285 284 284
298 296 294 293 292 291 291 290 290 289 288 288 287 287 287 286 285 284 281 280 280 281 281 281 281 282 284 285 286 286 286 287 287 287 289 289 289 288 287 286 285 285 285
295 293 291 290 289 288 288 287 287 287 286 286 286 285 284 284 283 281 279 279 280 279 279 280 281 284 285 286 287 287 288 287 287 287 289 288 288 288 287 287 286 285 284
291 290 289 288 288 287 286 285 285 283 281 283 283 282 282 281 280 277 277 278 278 278 278 280 283 283 284 285 285 288 288 288 288 287 288 288 288 288 287 286 285 285 285
289 288 288 287 286 286 286 284 282 281 279 278 278 277 278 277 276 275 276 276 276 278 279 281 281 281 281 282 283 284 287 288 288 287 288 288 287 288 287 286 285 285 284
287 286 284 285 285 285 284 284 284 281 280 280 278 277 276 275 274 274 275 276 277 278 279 279 279 279 279 279 280 281 283 285 287 286 287 287 286 287 287 286 285 285 284
284 284 285 284 284 283 283 282 282 282 282 282 279 278 276 275 274 274 275 276 278 277 277 277 277 277 277 277 277 278 279 281 282 287 286 286 286 287 287 286 286 285 284
284 283 283 283 281 280 280 281 280 280 280 280 279 279 278 275 273 276 276 276 276 276 276 275 275 275 275 275 276 276 277 278 280 281 286 286 287 286 287 286 286 285 284
279 279 281 281 280 280 279 279 279 279 279 279 278 278 276 273 273 275 275 275 275 275 274 273 273 273 273 273 274 275 275 275 277 279 281 286 286 285 285 286 285 285 284
281 278 277 279 279 278 278 278 277 277 277 277 276 276 272 271 273 274 274 274 273 273 272 272 272 272 272 272 273 273 273 273 274 276 278 279 285 285 285 285 285 284 284
278 277 277 277 277 276 275 275 275 276 276 275 275 274 272 272 273 273 272 272 271 271 271 271 270 270 270 271 271 271 272 272 273 274 275 275 277 281 284 284 284 284 283
276 276 276 275 275 273 274 275 274 275 274 273 273 273 273 272 272 271 271 270 270 270 269 269 269 269 269 268 269 269 270 271 271 272 272 272 274 277 283 284 284 284 283
275 275 274 274 274 272 274 273 273 272 271 272 272 272 271 271 270 270 270 269 269 268 268 268 267 267 267 268 268 268 268 269 269 270 270 271 272 274 277 284 284 283 283
274 274 273 273 273 273 272 273 272 271 271 271 271 270 270 270 269 269 268 268 267 267 267 266 266 267 267 267 267 267 268 269 268 268 268 270 272 273 276 282 283 283 282
273 272 272 272 272 272 271 271 271 270 270 269 269 269 268 268 268 267 267 266 266 265 265 266 266 266 266 267 268 268 268 268 268 268 269 270 271 273 276 282 283 283 282

GFSGL_925_thetae_060.txt.gz
Theta_e
334 333 331 331 332 331 329 328 327 325 323 322 320 316 314 311 310 309 305 303 302 301 301 301 302 301 301 302 300 300 299 299 297 297 297 296 296 295 295 294 293 292 291
335 334 332 332 331 329 328 327 325 323 321 319 315 312 310 309 306 305 302 302 301 301 301 299 300 302 302 301 300 299 299 299 298 296 296 296 296 295 295 294 293 292 291
333 331 330 327 328 327 325 323 321 319 315 311 309 308 307 306 304 302 302 301 301 300 300 300 302 301 300 300 299 299 299 298 298 298 297 296 296 295 294 293 292 292 291
325 324 319 320 321 319 317 315 313 311 309 307 306 305 304 303 302 302 301 299 300 300 300 300 299 299 299 299 299 299 299 298 298 297 297 296 296 295 294 293 292 291 291
317 314 314 316 314 312 310 308 306 306 304 304 303 302 301 301 301 299 298 299 299 298 299 298 299 299 299 299 298 298 297 297 296 296 295 294 294 294 294 293 292 291 290
313 311 312 311 309 307 306 304 304 302 302 301 301 301 300 299 299 299 298 298 297 298 298 296 296 296 296 296 296 296 295 295 295 295 295 294 294 293 293 293 292 291 289
311 310 311 311 309 307 306 304 304 303 301 300 299 299 300 299 299 298 297 297 296 294 294 293 294 294 294 294 294 294 293 293 293 294 293 293 293 293 293 292 291 290 289
312 310 309 308 306 306 304 303 303 302 301 301 301 300 300 300 299 296 293 292 292 292 292 292 291 290 289 289 288 288 288 289 291 292 292 292 292 292 292 292 291 290 288
308 308 307 306 305 304 304 303 302 302 301 301 300 299 295 293 292 292 291 290 289 288 287 288 287 287 286 286 286 286 287 287 288 289 290 291 291 291 291 291 290 288 287
308 307 305 305 305 303 302 302 302 301 298 296 295 295 294 292 290 289 287 286 285 285 284 283 283 284 284 284 284 285 285 284 284 285 286 286 288 290 291 290 288 287 286
306 305 305 304 303 302 300 298 297 296 296 295 293 291 290 289 288 286 285 284 282 281 282 282 282 282 282 280 281 283 283 284 285 285 286 286 288 290 290 290 289 287 286
304 302 301 300 299 297 296 295 294 293 291 290 289 289 289 287 286 285 283 283 280 280 281 281 281 280 280 283 284 285 285 285 285 285 286 285 287 288 290 288 287 287 286
301 299 297 296 295 295 293 291 290 290 289 288 288 288 287 286 285 284 283 279 279 280 279 279 279 280 282 283 284 284 285 286 286 286 287 286 286 288 289 288 287 286 285
298 296 294 292 290 290 289 289 289 288 287 286 287 286 285 284 283 282 278 277 278 278 277 278 279 281 281 281 281 281 283 283 283 288 287 287 287 289 289 288 287 286 285
295 293 291 289 289 288 287 287 286 284 284 285 284 282 282 281 280 278 276 277 277 277 277 278 280 280 280 279 279 279 280 280 282 284 288 287 288 288 287 287 287 286 286
291 290 289 288 288 288 285 283 282 282 281 279 279 278 278 278 277 276 276 276 277 277 278 279 279 279 278 278 278 278 278 278 279 281 285 286 287 287 287 287 287 286 285
288 288 288 287 286 286 285 285 282 281 280 280 280 279 278 276 276 275 275 276 277 278 278 278 278 277 277 276 276 276 277 277 277 278 280 283 287 287 287 287 286 285 285
286 286 286 286 285 284 284 284 283 283 283 281 280 279 278 276 275 275 276 276 277 277 277 276 276 275 275 275 274 274 275 275 276 276 277 280 283 286 286 286 286 285 285
285 285 284 283 283 282 282 282 282 281 281 281 280 280 277 276 276 275 277 276 276 275 275 275 274 273 273 273 273 273 273 274 274 274 276 277 278 283 286 286 286 286 285
282 282 282 282 280 280 280 280 280 280 280 279 279 279 278 276 274 273 275 275 274 274 273 273 272 272 272 271 272 272 272 272 273 273 274 275 275 276 284 285 286 286 285
278 279 279 280 280 279 279 279 278 278 278 278 277 277 275 273 272 274 274 273 273 272 271 271 271 270 270 270 270 270 270 271 270 272 272 273 273 274 276 278 284 285 285
279 278 278 278 278 277 277 276 276 276 276 276 276 275 274 273 274 273 272 272 271 270 270 269 269 269 269 269 268 268 269 269 269 270 270 271 271 272 273 276 280 285 284
277 276 276 276 276 275 275 276 275 275 275 274 273 273 273 273 272 272 271 270 270 269 268 268 268 267 267 267 267 268 268 268 268 268 269 270 270 270 271 273 276 284 284
276 276 275 275 275 273 274 275 274 274 273 272 273 272 272 272 271 270 270 269 269 268 267 267 266 266 266 267 266 267 267 267 268 269 269 268 268 269 271 272 273 277 284
275 275 274 274 274 274 274 273 273 272 272 272 271 271 270 270 270 269 268 268 267 266 266 265 265 266 265 265 266 267 267 267 267 268 268 268 268 269 270 271 273 276 283
274 273 273 273 273 273 272 272 271 271 271 270 270 269 269 268 268 267 267 266 266 265 264 264 264 264 265 265 266 267 267 267 268 268 269 269 269 269 270 271 273 276 282

GFSGL_925_thetae_063.txt.gz
Theta_e
327 327 328 328 328 328 326 327 325 321 325 326 325 322 319 317 314 313 312 310 306 305 304 303 302 302 301 301 301 302 301 300 298 298 298 298 297 297 296 296 295 294 293
328 328 329 328 329 329 327 326 325 324 323 322 321 319 316 314 312 311 309 305 304 303 301 301 301 300 301 301 302 301 301 300 299 298 297 298 297 297 297 296 296 294 293
330 331 331 331 328 326 326 323 322 322 320 317 317 315 312 310 308 307 306 303 302 301 301 300 300 301 300 300 300 300 299 298 299 298 297 297 297 297 296 296 295 294 293
325 326 325 324 324 323 320 319 319 317 316 314 312 310 308 307 305 303 302 301 300 300 300 300 300 299 299 299 299 299 298 299 298 298 297 297 296 296 295 295 295 294 293
318 319 318 317 317 316 316 315 314 313 310 309 307 306 305 304 303 302 301 300 300 300 299 298 298 298 297 296 296 295 295 295 295 295 294 294 294 294 294 294 293 293 292
319 316 315 315 313 312 312 309 309 307 306 305 304 303 302 301 301 300 299 300 299 297 297 295 294 293 293 293 293 292 290 288 289 290 291 292 292 293 293 293 292 291 291
314 312 310 309 309 308 307 306 304 303 302 302 301 301 300 300 300 299 298 297 296 294 293 292 291 291 290 289 289 288 287 286 285 287 288 289 290 290 291 291 292 291 291
311 311 309 308 306 305 304 303 302 301 301 300 299 300 299 299 298 297 297 293 292 292 291 289 288 287 285 283 283 282 282 282 283 284 285 286 287 288 288 288 290 291 290
310 309 307 306 305 304 303 302 301 301 300 300 300 299 299 296 295 292 291 290 289 287 285 284 282 282 282 282 281 281 281 283 284 283 283 283 284 284 285 286 289 290 289
307 307 306 304 304 303 303 302 302 301 301 300 297 296 293 290 289 288 287 286 284 283 281 280 280 279 280 280 282 282 282 283 284 284 284 284 284 284 285 287 289 289 288
306 305 305 304 304 303 302 301 301 298 295 293 291 290 290 289 287 286 285 284 282 279 280 279 279 278 279 281 282 282 283 283 284 284 284 285 285 285 285 286 288 288 288
305 305 304 304 303 302 300 297 296 295 294 292 290 288 287 286 285 284 283 282 279 279 279 278 278 278 281 281 280 280 280 281 282 282 283 285 285 286 286 286 287 287 288
304 304 302 301 299 297 295 294 292 292 291 289 289 287 285 284 283 283 282 279 278 278 277 277 278 280 281 280 279 279 278 279 279 280 281 281 285 286 286 286 287 287 287
301 299 298 297 296 294 291 291 290 289 288 287 287 285 284 283 282 282 279 277 277 277 277 278 279 280 279 278 277 277 277 277 277 278 278 280 283 286 286 286 287 287 287
296 295 293 291 289 288 289 288 288 286 286 286 285 284 284 282 280 279 277 277 277 277 277 278 278 278 277 277 276 276 275 276 276 276 277 278 280 283 287 287 287 287 286
292 291 290 288 287 287 286 283 282 282 281 282 282 280 279 278 277 276 276 277 277 278 278 278 277 276 275 275 275 274 274 274 274 275 274 276 278 279 283 287 286 286 286
289 288 288 287 286 284 283 282 280 280 281 281 281 280 279 278 277 277 276 277 277 277 276 276 275 274 274 274 273 273 273 273 273 274 273 274 275 278 278 283 286 286 285
288 287 286 285 285 285 284 284 282 281 281 280 280 279 278 277 276 276 276 277 276 275 275 275 274 273 273 272 272 271 271 271 271 272 272 273 274 275 276 276 284 285 285
285 285 284 284 283 283 283 282 282 281 281 281 280 279 277 276 276 276 275 275 275 274 274 273 272 271 271 271 270 270 270 270 270 270 270 272 272 273 273 274 276 284 285
283 284 283 281 281 281 281 280 280 280 280 279 279 278 277 276 275 274 274 274 273 273 272 271 270 270 269 269 269 269 268 268 269 269 269 271 270 271 272 273 274 276 283
281 281 280 280 280 279 279 279 278 278 278 278 277 276 276 275 274 273 273 272 272 271 270 270 269 268 268 268 268 267 267 267 268 268 268 268 269 270 270 271 272 273 276
279 279 279 278 278 277 277 277 276 277 276 276 275 274 274 273 273 273 272 271 271 270 269 269 268 267 267 267 266 266 267 267 267 267 267 267 268 269 269 269 270 272 275
278 277 277 276 276 276 275 276 275 275 275 274 274 273 273 273 272 271 271 270 269 269 268 267 267 266 266 266 266 266 266 266 266 267 267 267 268 268 268 268 270 272 273
276 276 275 275 275 275 274 274 274 273 274 273 273 272 272 271 270 270 269 268 268 267 266 266 266 265 265 264 265 265 266 266 267 267 267 267 267 267 268 269 269 270 271
275 274 274 274 274 273 273 273 273 272 272 272 271 270 270 269 269 268 267 267 266 266 265 265 264 264 264 264 264 265 265 266 266 267 267 267 267 268 268 268 269 270 271
273 273 273 272 272 272 272 271 271 271 270 270 269 268 268 267 267 266 266 265 265 265 264 264 263 263 263 263 264 264 265 266 268 269 267 267 267 268 269 269 269 270 271

GFSGL_925_thetae_066.txt.gz
Theta_e
320 320 320 322 323 324 325 325 325 325 324 322 323 324 324 322 320 318 316 315 312 310 307 304 303 303 302 302 301 301 301 301 299 299 299 299 298 298 298 298 297 296 296
322 322 324 325 326 327 326 326 323 321 323 322 323 323 323 320 318 316 313 311 309 305 303 303 302 302 301 301 302 301 301 301 299 298 298 298 297 298 298 298 298 297 297
326 326 326 326 327 327 327 326 322 318 320 321 321 319 318 317 316 312 311 309 306 304 303 302 301 300 301 300 300 299 299 299 298 297 296 297 297 297 297 297 297 296 296
327 326 328 327 325 322 323 324 323 321 320 319 318 317 316 314 311 309 307 305 303 301 301 300 300 300 299 298 298 297 296 295 294 293 292 293 293 293 293 294 294 294 294
323 322 324 321 325 319 320 323 321 320 320 317 315 311 310 309 307 305 304 302 301 300 300 299 298 295 294 293 292 292 291 290 289 288 288 288 289 290 291 291 292 292 293
321 318 317 318 315 316 316 316 317 314 311 310 308 308 306 305 304 303 301 300 300 299 298 295 293 293 292 290 289 288 287 284 284 284 285 285 286 287 288 288 289 290 290
316 314 313 311 311 312 313 311 309 308 307 306 305 304 303 302 301 299 299 299 297 295 293 292 292 290 289 288 286 284 282 281 280 282 283 284 284 284 284 285 285 286 287
312 311 310 309 307 306 305 305 305 305 304 303 302 302 301 299 299 299 298 296 293 292 291 289 288 285 282 281 281 280 281 282 283 284 284 284 284 285 284 284 284 284 284
311 310 308 307 305 304 303 303 303 302 301 301 300 299 299 298 297 297 296 292 291 288 286 283 282 281 280 279 281 282 282 282 282 282 283 283 284 284 284 284 284 284 285
310 309 308 306 304 303 303 302 301 300 299 299 299 298 298 295 294 291 290 289 286 284 281 280 279 279 279 281 281 281 281 281 280 281 281 282 283 283 284 285 284 285 286
308 306 305 304 303 303 302 301 300 300 299 299 297 293 291 289 287 287 286 285 283 280 279 279 278 278 280 281 281 280 279 279 278 278 279 280 281 282 284 285 285 285 285
306 304 304 303 303 302 302 301 300 299 296 292 289 287 286 285 285 285 284 283 280 279 278 278 278 279 280 280 279 279 278 276 276 276 277 278 278 279 281 284 286 286 286
304 303 303 303 302 303 301 299 294 293 291 288 286 284 283 283 282 283 282 280 278 278 277 277 278 279 279 278 277 277 276 275 275 275 276 276 277 277 279 281 285 285 285
303 302 302 301 300 298 297 295 293 290 288 287 285 283 282 281 281 281 279 277 277 277 277 278 278 278 277 276 276 275 274 274 274 274 274 274 274 276 277 279 283 286 286
300 297 296 294 293 291 290 290 290 289 289 288 285 285 283 281 280 279 277 277 277 277 278 278 277 276 275 275 274 274 273 273 273 273 273 273 273 275 276 278 279 286 286
293 292 291 289 288 287 286 284 285 286 286 286 285 285 282 281 278 277 277 277 278 278 277 276 275 274 274 273 273 272 272 271 271 271 272 272 272 273 275 275 276 279 286
290 288 287 287 286 284 283 282 281 280 280 279 279 279 278 278 277 277 277 277 277 276 275 275 274 273 272 272 272 271 271 270 270 270 270 270 270 271 273 274 274 275 280
287 286 286 285 284 283 282 282 282 281 281 280 281 281 279 277 277 277 277 277 276 275 274 273 272 271 271 271 270 269 269 269 268 268 269 269 269 270 271 272 273 273 275
284 284 284 284 284 284 284 283 282 282 282 282 281 279 278 277 276 275 275 275 274 274 273 272 271 270 270 269 268 268 268 267 267 267 268 268 268 268 269 270 271 272 273
284 285 285 284 283 282 281 281 281 281 280 279 279 279 277 276 275 274 274 274 273 272 271 271 270 269 268 268 267 267 266 266 267 267 267 267 267 267 267 269 270 270 271
284 282 281 281 281 280 280 279 279 279 278 278 277 277 276 274 274 273 274 273 272 271 270 270 269 268 267 267 266 266 266 266 266 266 266 266 266 266 267 269 269 269 270
281 280 279 279 278 278 277 277 277 277 276 276 275 275 274 273 273 273 272 271 270 270 269 268 267 267 266 266 265 265 265 265 265 265 265 266 266 266 267 267 268 269 269
278 277 277 277 276 276 275 275 275 275 274 274 273 273 272 272 272 271 270 270 269 268 267 267 266 266 265 265 264 264 264 264 265 265 265 265 266 266 266 266 268 268 269
276 275 275 275 274 274 274 274 274 273 273 272 272 272 271 270 269 269 268 267 267 266 266 265 265 264 264 264 264 264 264 264 265 265 265 265 266 266 266 266 267 268 269
274 274 273 273 273 272 272 272 272 271 271 271 270 270 269 268 268 267 266 266 265 265 264 264 264 263 263 263 263 264 264 264 264 265 266 265 265 266 266 266 267 268 269
272 272 272 271 271 271 270 270 270 269 269 269 268 268 267 267 266 265 265 264 264 263 263 263 262 262 262 262 263 262 263 264 266 267 267 267 267 267 267 267 268 269 269

GFSGL_925_thetae_069.txt.gz
Theta_e
316 316 316 316 316 318 318 320 321 322 323 321 321 321 322 323 322 322 321 318 318 316 314 311 310 308 304 303 303 302 301 301 299 300 300 300 299 298 297 297 297 298 298
316 316 317 317 317 318 319 321 323 324 323 320 323 320 322 322 321 322 319 317 315 314 311 308 304 303 302 302 301 301 301 300 299 298 298 297 296 297 296 296 296 296 296
319 318 317 317 318 319 322 323 324 324 322 318 317 318 321 321 321 318 317 315 314 311 308 304 303 302 301 301 301 299 298 298 297 295 293 293 292 292 292 292 292 292 292
320 320 320 320 321 322 323 324 325 325 320 318 319 319 318 319 317 316 314 312 309 307 305 303 301 301 301 299 298 297 296 294 292 290 289 288 288 288 287 288 287 287 288
322 322 322 322 323 324 326 325 324 325 323 321 318 316 316 314 314 312 310 308 305 303 301 300 299 299 298 296 294 292 291 290 288 287 285 284 283 283 283 284 286 285 285
324 324 324 325 325 324 325 322 320 319 320 318 316 314 312 311 311 309 308 305 302 300 300 298 294 293 292 292 291 290 288 285 283 281 281 282 282 283 284 284 284 283 283
323 320 319 321 322 323 322 319 315 316 313 313 311 310 309 308 306 305 304 302 300 299 297 293 291 290 289 288 287 285 282 281 282 282 283 283 283 283 283 283 283 283 283
317 316 315 316 315 313 312 311 309 310 310 308 307 307 306 304 302 301 300 299 298 295 292 291 290 287 285 283 281 280 281 281 281 281 282 282 283 283 283 283 283 284 284
314 315 314 312 309 308 307 307 307 306 304 304 304 303 303 300 299 299 299 296 293 290 289 287 285 282 281 280 280 281 280 280 280 279 280 281 281 281 282 283 284 284 284
313 311 311 311 310 308 307 306 304 304 302 302 301 301 300 298 298 297 296 293 290 288 284 282 280 279 279 281 281 280 280 279 278 277 277 278 279 280 280 281 283 284 284
312 311 309 308 308 306 304 303 301 299 299 299 298 296 297 296 294 293 291 289 288 283 281 280 279 278 280 281 280 279 279 278 276 276 276 277 277 277 278 279 280 282 284
310 307 306 305 304 303 301 299 298 298 296 293 292 290 289 288 288 287 286 285 283 280 279 278 278 279 280 280 279 278 277 275 275 275 275 275 275 275 276 277 278 280 281
306 304 303 302 301 301 300 298 297 296 293 288 287 285 284 284 284 284 283 282 280 278 278 278 278 279 279 278 277 276 275 274 273 274 274 274 274 273 274 275 277 278 281
302 301 301 300 299 298 299 298 296 292 289 286 284 282 282 282 282 281 281 279 277 277 277 278 278 278 277 276 275 275 273 273 272 273 272 273 273 272 273 274 275 276 278
300 298 296 295 296 293 292 291 291 290 291 288 285 284 282 280 280 280 279 277 277 278 278 278 277 276 275 274 274 273 272 272 272 271 271 271 271 271 272 272 274 275 276
295 293 292 291 289 288 287 285 287 288 288 289 288 287 283 282 279 278 277 277 278 278 277 276 275 274 273 273 273 272 271 271 270 270 270 269 269 269 270 271 272 273 275
293 290 288 286 285 284 283 282 281 281 283 284 283 282 282 279 277 278 277 277 277 276 275 274 274 273 272 272 272 271 270 269 269 268 268 268 268 268 269 269 271 272 273
288 286 285 284 284 283 283 282 281 281 280 280 280 280 280 279 278 277 277 277 276 275 274 273 272 272 271 270 270 269 268 268 268 267 267 267 267 267 268 268 269 270 271
284 284 284 283 283 283 283 283 283 282 282 281 280 279 278 278 278 277 276 276 275 274 273 272 271 271 270 269 268 268 267 267 266 266 266 266 266 266 266 266 267 268 270
286 286 287 285 284 283 283 282 282 282 281 281 280 279 278 277 276 275 274 274 273 273 272 271 270 269 268 268 267 267 266 266 266 266 266 265 266 266 266 266 266 268 269
283 282 282 282 281 281 280 280 279 279 278 278 278 277 276 275 274 274 273 273 272 271 271 270 269 268 267 267 266 265 265 265 265 265 265 265 265 265 265 265 266 267 267
280 280 279 278 278 277 277 277 277 276 276 276 275 275 274 274 273 273 272 271 271 270 269 268 267 267 266 265 265 265 264 264 264 264 264 264 264 264 265 265 266 266 267
278 277 276 275 275 275 275 275 274 274 274 273 273 273 272 272 271 271 270 269 268 268 267 267 266 265 265 265 264 263 263 263 264 264 264 264 264 264 265 265 265 266 267
275 274 274 273 273 273 273 272 272 272 272 271 271 271 270 269 269 268 268 267 267 266 265 265 264 264 263 263 263 263 263 263 263 263 263 263 264 265 264 265 265 266 266
273 272 272 271 271 271 271 270 270 269 269 269 269 268 268 267 267 266 266 265 265 264 264 263 263 262 262 262 262 262 262 262 262 263 264 264 264 265 265 265 265 266 267
270 270 270 269 269 268 268 268 267 267 267 267 267 267 266 266 265 265 264 263 263 262 262 262 261 261 260 261 261 261 261 263 264 265 265 265 265 265 265 265 266 266 267

GFSGL_925_thetae_072.txt.gz
Theta_e
315 315 314 315 315 315 315 315 315 316 317 318 320 322 322 322 322 320 320 321 320 320 319 317 315 313 311 308 305 304 303 302 301 301 300 301 300 300 298 297 296 295 294
315 315 315 315 315 316 316 316 315 315 317 318 320 321 322 321 320 320 321 320 320 318 317 315 313 310 307 305 304 303 302 301 300 298 298 298 298 296 293 293 293 293 291
315 315 315 315 315 315 315 316 317 317 318 319 321 322 321 321 318 319 321 320 319 316 316 313 311 307 304 303 303 301 300 299 297 296 293 292 291 292 290 289 285 283 283
316 316 316 316 316 316 316 317 318 318 319 320 322 322 321 321 318 319 320 317 314 311 311 309 307 304 303 302 301 299 298 296 293 290 289 288 288 285 283 283 284 284 284
317 317 316 316 316 316 316 318 320 320 320 320 322 321 319 317 318 317 316 312 310 308 306 304 302 302 301 300 298 296 293 291 290 288 285 283 282 282 283 283 283 283 283
318 318 318 318 318 318 319 320 322 322 322 321 322 321 318 317 316 314 313 309 308 305 302 300 300 300 298 296 294 292 291 289 286 283 282 282 282 283 282 282 282 282 283
318 319 319 319 320 320 321 322 321 320 320 320 319 319 316 313 311 309 308 306 304 301 299 298 294 293 292 290 290 288 285 282 282 282 282 282 282 281 281 281 282 282 283
320 320 320 321 321 321 320 319 317 316 316 316 315 311 308 307 305 304 305 303 301 299 297 294 293 289 288 287 285 282 281 281 281 281 280 280 281 281 282 282 282 282 282
322 321 320 319 317 317 316 314 311 310 308 307 306 305 306 302 302 302 302 300 297 293 291 290 289 286 283 281 281 281 281 280 280 279 278 278 278 278 280 281 281 281 282
317 317 315 315 315 315 314 311 309 307 304 303 302 302 302 299 299 299 300 297 292 289 286 284 283 282 280 280 281 280 280 279 278 278 278 277 277 277 277 278 279 280 280
315 314 315 315 313 311 307 305 303 301 300 298 297 296 298 297 296 297 296 294 292 286 284 281 280 279 279 281 280 279 279 278 277 276 276 276 276 276 276 276 276 277 277
314 312 310 309 307 304 303 300 299 298 295 293 292 290 291 292 293 292 290 289 287 286 281 279 278 279 280 280 279 278 277 276 275 274 274 275 275 275 274 274 275 276 277
310 306 305 304 303 302 301 298 295 294 291 289 288 285 284 285 285 286 286 284 282 281 279 278 278 279 280 279 277 277 276 274 273 273 274 273 273 273 273 273 273 275 275
304 303 301 300 298 297 297 296 294 291 289 288 286 284 283 283 284 283 283 281 280 279 278 278 278 279 278 277 276 275 274 273 272 273 272 272 272 272 271 272 272 273 274
300 297 296 295 295 293 292 292 293 293 295 292 289 288 285 282 282 282 282 280 278 278 278 278 278 277 276 275 275 274 273 272 272 271 271 271 270 270 270 270 271 272 273
296 294 294 293 291 290 289 287 289 290 290 290 289 287 283 283 281 280 280 278 278 278 278 277 276 275 274 274 274 273 272 271 271 270 270 269 269 269 269 269 270 270 271
293 291 289 288 287 285 285 284 283 282 283 285 285 285 285 282 280 279 277 278 278 278 277 276 275 274 273 273 272 272 271 270 269 269 268 268 268 268 267 268 268 269 269
288 286 286 285 284 283 282 282 282 282 281 280 281 281 280 279 278 278 278 278 277 276 275 275 274 273 272 272 271 270 269 268 268 267 266 266 267 266 266 267 267 267 268
284 284 284 283 283 284 284 283 283 282 281 280 280 280 279 279 278 277 277 277 276 275 274 274 273 272 271 270 269 268 268 267 267 266 266 266 266 265 265 265 265 265 266
284 285 285 284 284 283 283 282 282 281 281 280 279 278 278 277 276 276 275 275 275 274 273 272 271 270 269 269 268 267 266 266 266 265 265 265 265 265 265 265 265 264 266
281 281 282 281 280 280 279 279 279 279 278 277 276 277 276 276 274 274 273 273 273 272 271 270 270 269 268 267 266 266 265 265 265 264 264 264 264 264 265 264 264 264 266
279 278 278 277 277 277 276 276 276 276 275 274 274 274 274 273 273 272 272 271 270 270 269 268 267 267 266 265 265 264 264 263 263 264 263 264 264 263 264 264 264 264 265
276 275 275 275 274 274 274 273 273 273 273 272 272 272 271 271 270 270 269 269 268 267 267 266 265 265 264 264 263 263 262 262 262 262 262 262 262 263 263 263 264 264 265
274 273 273 272 272 272 271 271 271 270 270 270 270 269 269 268 268 267 267 266 265 265 264 264 263 263 262 262 262 262 261 261 261 261 261 261 262 263 263 263 263 264 264
272 271 271 270 270 269 269 268 268 268 268 267 267 267 267 266 266 265 265 264 264 263 263 262 262 261 261 260 260 260 260 260 260 261 261 262 262 263 263 263 263 264 264
269 269 268 268 267 267 266 266 265 265 265 265 265 265 265 264 264 263 263 262 262 261 261 260 260 260 259 259 259 260 260 260 261 262 262 262 263 263 263 263 263 263 264

GFSGL_925_thetae_075.txt.gz
Theta_e
317 316 316 315 315 314 314 314 315 316 316 315 315 316 315 316 317 320 321 320 320 321 320 320 318 319 315 313 311 309 307 306 306 304 303 302 301 300 299 298 296 295 293
317 316 316 316 315 314 314 314 314 315 315 315 317 315 316 318 320 316 321 320 320 320 319 318 315 315 313 312 309 307 305 303 303 302 301 300 299 298 297 295 293 289 287
317 316 316 316 316 315 315 315 315 316 316 317 317 316 317 319 320 320 320 318 318 320 321 316 316 312 312 309 305 303 302 301 300 299 298 296 295 293 292 289 286 284 285
317 316 316 316 316 316 316 316 316 316 316 317 316 316 318 319 319 320 320 317 317 317 317 316 313 311 309 306 303 302 301 299 297 295 292 292 291 290 286 286 286 286 286
317 317 316 316 316 316 316 316 316 316 317 317 317 317 317 319 320 320 319 317 316 316 315 310 308 308 306 305 303 301 299 296 293 291 290 289 288 286 285 285 285 285 285
318 318 317 317 316 316 316 316 316 316 317 318 318 318 319 317 319 321 318 317 316 311 307 305 304 303 302 301 300 298 296 294 291 288 288 287 286 285 284 284 284 285 286
318 318 318 317 317 316 316 316 317 318 319 319 319 319 318 317 319 319 317 316 309 305 304 301 299 299 299 297 294 293 292 291 288 285 285 285 284 284 283 284 284 284 285
319 319 318 318 318 318 318 318 319 320 320 319 319 318 318 317 317 315 310 307 305 302 300 299 299 295 293 293 291 287 284 282 282 282 283 282 282 282 282 282 283 283 283
320 319 319 319 319 318 318 318 319 318 316 316 315 314 313 313 310 306 304 302 298 295 295 295 293 291 290 288 285 282 282 282 280 280 279 278 278 278 279 281 282 282 283
321 321 320 320 318 318 318 318 317 315 313 311 308 307 306 305 301 300 302 299 293 290 289 288 288 287 286 283 282 282 282 282 280 279 279 278 277 278 277 279 279 280 281
318 317 318 319 318 316 315 314 311 308 306 303 301 299 298 300 298 298 299 296 293 287 285 283 282 282 280 280 281 282 281 279 278 278 277 277 277 277 277 277 276 277 279
317 316 316 314 313 311 310 305 303 301 298 294 293 291 292 293 294 295 296 295 291 289 283 281 280 280 281 280 280 279 278 277 276 277 277 277 276 276 276 275 275 276 276
313 310 309 308 306 305 304 300 297 296 293 290 289 287 286 288 288 290 289 288 286 284 281 279 280 281 280 279 278 278 277 276 276 276 276 275 275 275 274 275 274 275 275
304 302 302 302 300 299 297 296 294 292 290 288 287 285 284 283 283 282 281 280 280 279 279 280 281 280 279 278 277 276 276 275 275 275 275 274 274 273 274 273 273 274 274
300 298 296 296 295 293 293 292 292 291 291 289 287 285 283 281 281 281 281 280 279 279 279 279 279 279 278 277 277 275 275 274 274 274 273 273 273 272 273 272 272 273 274
296 294 293 292 290 289 288 286 288 290 290 290 288 286 283 281 281 283 284 283 280 278 279 279 278 278 277 277 276 275 274 273 273 273 272 272 271 271 271 271 271 272 272
292 290 289 288 287 286 285 284 283 283 285 286 286 285 285 282 282 281 280 279 279 278 279 278 277 276 276 275 275 274 274 273 271 271 271 270 270 270 270 270 270 271 271
286 286 285 284 284 283 283 283 282 282 282 281 281 281 280 280 279 279 279 278 278 277 277 277 276 275 275 274 273 273 272 271 270 270 270 269 269 268 269 269 269 270 270
288 285 284 284 284 284 283 283 282 282 282 281 280 280 279 279 278 278 278 279 278 277 277 276 275 274 274 272 272 271 270 269 269 268 268 267 267 267 267 268 268 268 268
283 283 283 283 282 282 283 283 282 282 281 281 280 278 277 278 277 276 276 276 276 276 275 274 273 272 271 270 269 269 268 268 268 267 267 267 266 266 267 267 267 268 268
280 280 280 280 280 280 280 280 280 279 278 277 276 275 276 276 275 275 275 274 273 273 272 271 270 269 269 268 268 268 267 266 266 266 265 265 265 265 265 266 267 267 268
278 277 277 277 277 277 277 277 277 276 276 275 274 273 273 273 273 272 271 270 269 268 268 267 267 266 266 265 265 264 264 264 264 264 264 264 264 265 265 266 266 267 267
275 275 275 274 274 274 274 274 273 273 273 272 272 271 271 270 269 269 268 267 266 265 265 265 264 264 264 263 262 262 262 262 262 262 262 263 264 264 265 265 265 266 267
273 273 272 271 271 271 271 271 270 270 270 270 269 269 268 267 266 265 265 265 264 264 263 263 262 262 261 261 261 260 260 260 260 261 261 261 262 263 263 264 265 265 266
270 270 269 269 269 268 268 267 267 267 266 266 266 266 265 265 264 263 263 263 263 262 262 262 261 260 260 260 260 260 259 259 259 259 259 260 261 261 262 263 264 265 265
267 267 267 266 266 266 265 265 264 264 264 263 263 263 263 263 262 262 261 261 260 260 260 259 259 259 259 259 258 258 259 259 260 260 259 259 260 261 262 263 264 264 265

GFSGL_925_thetae_081.txt.gz
Theta_e
325 325 325 324 323 324 324 324 324 323 322 320 320 319 318 318 319 319 320 321 322 322 321 322 323 323 322 322 320 318 316 315 315 315 315 314 309 308 306 305 306 305 304
325 325 325 325 325 324 324 324 324 324 322 321 321 320 320 320 321 321 321 321 321 322 322 322 323 322 322 321 318 317 316 316 314 314 312 310 310 309 305 304 304 303 301
324 325 326 326 325 325 325 324 324 324 323 322 322 321 321 321 322 322 322 322 321 322 322 322 323 321 319 318 316 314 315 315 313 313 311 307 306 305 305 302 301 300 298
324 324 325 326 325 325 325 325 324 323 323 323 322 321 321 321 321 321 321 321 321 321 322 322 320 320 319 317 315 313 314 311 310 310 309 304 302 300 301 300 298 295 293
326 325 325 326 325 324 324 324 325 324 324 323 323 322 322 322 322 322 322 321 322 322 321 321 322 320 317 316 314 313 312 309 307 305 301 299 297 296 296 295 293 291 291
328 328 326 325 326 325 324 324 323 323 323 323 323 322 322 322 322 321 321 322 321 322 322 320 319 318 316 318 316 314 313 307 304 300 298 298 296 295 295 292 289 290 292
328 328 327 327 326 325 325 324 324 324 323 322 322 322 322 322 321 321 321 320 322 321 319 318 315 316 315 314 309 307 305 303 302 300 296 295 294 293 291 289 290 290 291
328 328 328 327 327 326 326 325 324 324 324 324 323 323 323 323 322 322 321 320 319 319 319 316 314 314 311 309 305 300 298 296 296 295 294 293 290 289 289 289 289 290 290
328 328 327 327 328 327 327 326 325 325 324 324 324 323 323 323 322 322 321 319 317 315 313 310 308 305 302 301 300 295 292 291 292 291 291 288 287 287 287 287 287 287 288
328 328 327 327 327 327 327 327 326 325 324 323 323 322 322 322 321 321 320 318 309 303 299 297 296 297 292 292 293 291 288 286 286 285 284 283 282 281 281 280 284 285 286
326 327 326 326 326 326 326 326 325 322 319 317 315 311 311 311 312 310 308 307 300 292 290 289 289 289 289 289 290 288 287 284 282 282 283 283 283 283 283 282 282 283 283
325 326 326 326 325 325 325 320 317 317 314 305 301 296 295 296 296 296 298 300 294 292 287 286 284 284 284 284 284 283 283 282 282 282 282 283 283 283 282 282 282 281 281
320 314 316 319 317 314 312 308 305 303 298 293 292 288 287 288 287 290 292 292 290 288 285 284 282 282 282 281 281 281 281 282 282 282 283 283 282 281 280 280 279 280 280
303 301 302 301 300 301 301 299 297 295 293 291 289 287 285 284 284 284 284 285 286 284 282 281 281 281 281 279 279 280 281 281 281 281 282 282 281 280 280 280 279 280 280
296 294 293 291 291 290 290 292 293 292 292 289 286 285 284 283 282 283 284 283 283 283 282 281 281 281 281 281 282 281 280 280 280 280 279 280 280 280 279 279 279 278 278
291 291 290 289 288 287 286 285 286 288 288 287 286 286 283 283 283 283 283 283 282 282 283 283 283 283 284 283 282 281 280 279 279 278 278 278 278 277 277 277 276 276 277
291 289 288 287 287 286 285 285 284 283 283 283 283 283 283 282 282 282 281 282 283 284 284 284 283 283 281 280 280 280 280 277 276 277 276 276 276 275 275 275 275 275 276
289 289 288 286 285 284 284 284 283 283 282 282 282 282 282 281 281 281 281 281 282 282 282 282 281 280 279 279 278 278 277 276 276 275 274 274 274 273 273 273 273 274 274
285 284 284 284 284 283 283 283 282 282 282 281 281 280 280 280 280 281 282 282 281 281 280 279 279 278 277 277 276 275 274 274 273 273 273 273 272 272 272 272 272 272 272
283 283 284 284 284 284 284 283 283 282 281 281 280 280 281 280 279 279 279 279 279 278 278 277 276 275 275 274 274 273 273 272 272 271 271 271 270 270 270 270 270 270 271
282 281 282 282 282 282 282 281 280 279 279 278 278 278 278 277 277 276 275 275 275 274 274 274 273 273 272 272 271 271 270 270 270 269 269 269 269 268 268 269 269 269 270
279 279 279 279 279 280 280 279 279 278 277 276 276 275 276 276 275 274 273 272 272 271 271 271 271 270 270 269 269 269 268 268 268 268 267 267 267 267 267 268 268 268 269
278 278 277 277 276 276 276 277 276 276 276 275 275 274 274 273 273 272 271 271 270 269 268 268 268 267 267 266 266 267 267 267 266 266 265 265 265 266 266 267 267 267 268
277 276 275 275 275 275 275 275 274 274 274 273 273 272 271 271 271 270 269 268 268 268 267 266 266 266 264 264 265 264 265 264 263 263 263 264 264 265 265 265 266 266 267
274 274 274 273 273 273 273 272 272 272 272 272 271 271 270 270 269 269 268 267 266 265 265 265 265 264 264 262 262 262 262 261 260 259 260 261 263 263 264 265 266 266 267
271 271 271 271 271 271 271 271 270 270 270 270 269 269 269 268 267 267 266 265 263 264 264 264 264 263 262 262 263 261 260 260 258 258 258 260 262 264 265 265 266 265 266

GFSGL_925_thetae_084.txt.gz
Theta_e
324 323 322 324 325 323 323 321 318 316 316 315 315 315 316 316 316 317 317 318 319 319 320 321 321 319 320 321 321 321 322 321 319 319 317 316 316 314 312 311 308 306 305
326 324 323 323 323 324 324 323 321 319 317 316 315 316 316 317 317 317 318 318 318 320 320 321 322 321 322 322 322 322 321 320 318 316 316 315 316 314 311 309 306 306 306
327 326 325 325 324 324 324 324 324 322 321 319 319 319 318 318 318 318 318 318 319 319 320 321 322 322 322 323 323 321 320 318 317 316 315 314 313 311 309 306 305 305 305
326 328 327 327 326 325 325 324 326 325 324 324 323 322 321 320 320 319 320 320 321 321 321 321 322 322 322 323 322 321 319 316 314 313 313 311 310 309 307 305 303 304 302
325 325 327 327 327 327 327 326 325 325 325 325 324 323 322 322 321 321 321 321 321 321 322 322 322 322 322 322 321 319 317 314 313 311 311 307 305 304 303 304 302 301 300
328 326 326 327 327 327 326 326 326 325 325 325 324 324 323 322 322 322 321 322 322 322 321 321 321 321 322 321 320 320 319 314 311 310 310 306 304 301 300 298 296 293 290
330 329 328 326 326 328 326 325 326 326 326 325 324 323 323 323 323 322 322 321 322 322 322 321 321 322 321 321 321 318 315 312 312 310 308 303 298 297 296 295 292 290 290
330 330 330 329 327 327 327 326 325 325 325 325 325 325 324 323 323 323 323 322 321 321 321 321 321 321 320 319 317 313 307 305 304 303 301 296 296 295 295 293 291 290 289
330 330 330 330 329 328 327 326 326 325 325 324 324 324 323 323 322 322 322 322 321 320 320 320 320 318 316 311 307 298 292 291 291 294 293 292 292 291 290 289 288 287 288
325 329 329 329 329 329 328 328 326 326 325 325 325 325 324 324 323 323 323 320 318 315 311 308 304 303 300 297 297 293 288 286 288 288 287 287 287 287 287 286 286 286 287
323 323 325 329 328 328 328 328 328 327 326 325 322 317 316 317 318 320 321 317 313 302 296 292 291 292 290 291 292 290 287 285 282 283 283 283 283 283 283 283 282 282 283
314 312 311 315 322 327 328 324 323 320 312 306 304 301 301 302 302 305 308 309 303 297 289 286 285 287 288 288 286 284 283 283 283 282 283 283 283 283 283 282 282 282 282
303 300 301 303 305 307 310 311 314 315 310 298 295 291 289 290 291 293 296 295 294 289 285 284 283 284 284 283 283 283 282 282 282 283 284 283 282 281 281 281 281 280 280
297 293 292 291 291 295 297 297 298 298 296 292 291 287 286 285 285 286 286 285 285 283 282 282 282 282 281 281 281 281 282 282 282 282 281 281 281 280 280 280 280 280 280
293 293 290 288 287 286 285 286 289 291 292 290 288 286 285 284 284 284 284 283 282 282 281 281 281 281 281 281 281 281 280 280 280 279 279 279 279 279 278 278 278 277 277
290 289 289 288 287 286 285 284 284 284 286 287 286 285 284 284 284 284 283 282 282 283 283 283 283 283 283 282 281 280 279 279 278 277 277 277 277 276 276 276 276 276 276
289 288 287 286 286 286 285 284 284 283 283 283 283 283 283 283 283 283 283 284 285 284 283 283 282 281 280 280 280 278 277 276 276 276 275 275 274 274 274 274 274 274 274
285 285 284 284 284 283 283 283 283 282 282 282 282 282 282 282 282 282 282 282 281 281 281 280 280 279 279 278 277 276 275 275 274 273 273 273 273 273 272 272 272 272 272
285 284 284 283 283 283 282 282 282 281 281 281 281 281 280 280 281 281 280 280 280 279 278 277 277 276 276 275 275 274 274 273 273 272 272 271 271 270 270 270 270 270 270
283 283 284 284 284 283 282 281 281 281 281 281 281 280 278 278 277 276 276 276 276 276 276 275 274 274 273 273 273 272 272 271 271 270 270 269 269 269 269 269 269 269 269
281 281 281 281 281 280 279 278 278 278 277 277 277 277 276 275 274 274 273 273 273 273 273 273 272 271 271 270 270 270 269 269 269 268 268 267 267 267 267 267 268 268 268
278 278 278 278 278 278 278 278 277 277 276 276 275 274 274 273 273 272 271 271 270 270 270 270 269 269 269 268 268 268 268 268 267 266 266 266 266 266 266 267 267 267 267
277 277 277 276 276 276 276 276 275 275 274 274 273 272 272 271 271 270 270 270 269 268 268 268 267 267 266 266 266 266 266 265 265 264 264 264 264 265 265 265 266 266 266
276 276 275 274 274 275 274 274 274 274 273 273 272 271 271 270 269 268 268 267 267 267 266 266 266 265 264 264 264 264 264 263 263 262 262 262 262 263 264 264 264 265 266
274 273 273 273 273 273 272 272 272 272 271 271 271 270 270 269 268 267 266 265 265 265 265 265 264 264 263 263 263 263 262 262 261 261 261 260 261 262 263 264 265 265 265
271 271 271 271 271 271 271 270 270 270 269 269 269 268 268 267 267 266 265 263 263 264 264 264 263 263 262 263 262 262 261 261 260 259 259 260 261 262 263 263 263 264 265

GFSGL_925_thetae_087.txt.gz
Theta_e
322 323 323 323 319 318 317 316 315 314 314 314 314 314 316 316 317 317 318 318 318 318 317 317 317 317 317 317 318 319 319 320 320 319 319 319 318 318 317 316 316 315 314
322 322 322 322 322 320 319 318 316 315 315 314 314 314 315 316 316 316 317 316 317 318 318 318 318 318 319 318 318 319 319 319 320 319 319 319 318 318 317 316 315 314 313
322 322 322 322 322 323 321 321 319 317 316 315 314 314 314 315 315 316 316 316 317 317 317 318 319 319 319 319 320 320 320 320 320 319 319 318 317 316 315 315 314 310 310
324 323 322 321 321 322 324 323 323 321 318 316 315 315 314 313 314 314 315 316 316 316 316 317 317 319 320 320 320 321 320 320 319 318 317 317 315 315 314 310 305 306 306
324 325 323 322 322 322 322 323 323 323 321 319 317 316 315 315 314 314 315 316 317 316 316 317 318 318 319 320 320 320 321 320 318 316 316 314 310 307 309 309 307 305 302
324 324 326 325 324 323 323 323 323 323 324 322 321 319 318 317 317 317 316 317 317 317 317 318 319 319 320 320 320 321 321 320 318 316 315 313 308 309 310 307 304 299 296
326 324 324 325 326 325 325 324 324 323 323 325 324 323 322 321 320 319 319 319 319 319 319 319 319 320 320 321 321 321 321 320 318 317 314 313 311 307 306 301 298 295 293
328 327 325 324 325 326 326 326 325 325 324 323 324 324 323 323 322 321 321 321 319 320 320 320 320 320 321 321 321 320 316 312 311 310 307 306 301 300 299 298 295 293 291
320 320 321 326 326 325 325 326 325 325 324 324 324 324 323 323 323 323 322 322 319 319 319 320 320 320 321 320 319 312 300 295 294 296 296 294 294 293 293 293 290 290 288
313 313 312 312 322 327 326 325 326 325 324 324 324 324 324 323 323 323 323 322 318 317 316 316 316 318 319 319 317 308 293 289 289 289 289 289 288 288 288 288 288 287 287
306 305 304 304 307 311 321 326 325 325 325 324 323 320 319 320 319 320 322 321 318 313 307 301 301 302 301 299 299 293 290 287 286 286 285 284 283 282 282 282 282 283 284
299 298 299 303 299 301 302 307 315 322 323 317 313 305 304 305 307 309 310 308 305 303 292 290 290 292 292 292 291 287 285 285 284 283 283 283 283 282 282 282 282 282 281
295 294 292 297 300 295 295 293 295 300 301 297 296 292 290 291 290 293 296 297 292 289 286 285 284 284 284 283 283 284 284 283 283 283 282 282 281 281 281 281 281 282 281
293 291 290 288 289 295 291 289 288 289 292 291 289 286 285 285 285 285 284 284 284 283 282 283 282 282 282 282 282 283 283 282 282 281 280 280 280 280 279 279 279 278 278
290 289 288 286 286 285 285 285 286 287 289 287 286 286 285 285 284 283 283 282 282 282 282 282 282 282 281 281 280 280 280 280 279 279 279 278 278 277 277 276 276 276 276
288 287 287 286 285 285 285 284 284 284 285 285 285 284 284 283 283 283 283 283 282 282 283 283 283 281 281 280 279 278 278 278 277 277 276 276 275 275 274 274 274 274 274
286 285 285 284 284 284 284 283 283 283 283 283 284 284 284 284 284 284 284 284 282 282 281 281 280 280 279 278 277 277 276 275 275 274 274 273 273 273 272 272 272 272 271
284 283 283 283 283 282 282 282 282 282 282 281 282 283 282 282 283 282 282 281 280 279 279 278 278 277 276 276 275 275 273 273 273 273 272 271 271 270 270 270 270 269 269
284 283 283 283 282 282 281 281 281 281 281 280 278 278 278 278 278 278 278 277 277 276 276 275 275 275 274 274 273 272 272 271 271 270 270 270 269 269 268 268 268 268 268
281 281 281 280 280 279 279 278 278 278 278 277 276 276 276 277 274 274 274 274 274 274 273 273 272 272 272 271 271 271 270 270 269 269 268 268 267 267 267 267 267 267 268
278 279 279 279 278 278 277 277 277 276 276 275 274 274 274 273 272 271 271 271 271 271 271 271 270 270 269 269 269 269 268 268 268 267 267 266 266 266 266 266 266 266 266
277 276 276 276 276 276 275 275 275 274 274 273 273 272 272 271 271 270 269 269 269 269 269 269 268 268 267 267 267 267 267 266 266 266 265 265 265 265 265 265 265 265 265
275 275 275 275 275 274 274 274 273 273 272 272 271 270 270 269 269 268 267 267 267 267 267 267 266 266 266 266 265 265 265 265 264 264 264 263 263 263 263 264 264 264 265
274 274 273 273 272 272 272 272 271 271 271 270 270 269 268 268 267 266 266 266 265 265 265 265 265 264 264 264 264 264 263 263 263 262 262 262 262 262 263 263 264 264 264
272 271 271 271 271 270 270 270 270 269 269 269 268 268 267 266 266 265 265 265 265 264 264 264 263 263 263 262 262 262 262 262 262 262 262 262 262 262 262 262 263 263 264
270 270 269 269 269 269 268 268 268 268 267 267 266 266 266 265 264 264 263 263 263 263 263 263 262 262 262 262 261 261 261 261 261 262 262 262 262 262 262 262 263 263 264

GFSGL_925_thetae_090.txt.gz
Theta_e
322 322 321 320 318 318 317 315 313 314 314 314 314 315 316 317 315 315 317 318 318 318 318 319 319 319 318 318 318 318 318 318 318 318 318 318 318 318 318 318 318 318 318
322 322 321 320 319 317 316 316 314 313 313 314 314 314 315 317 317 317 317 317 317 318 318 318 318 317 318 318 317 317 318 318 318 318 318 318 319 319 318 318 319 318 318
321 322 322 322 321 319 317 317 316 314 313 313 313 313 314 315 315 316 316 316 316 317 317 318 317 317 317 317 317 317 317 317 318 318 318 318 318 318 318 318 318 317 316
321 321 321 321 322 321 320 319 317 316 315 314 313 313 313 313 314 314 315 315 315 316 316 317 317 317 317 317 318 317 317 317 317 317 318 318 318 318 317 316 314 315 314
322 321 321 321 321 322 322 321 320 318 317 316 314 314 313 313 313 314 314 315 315 315 315 316 316 316 317 317 317 317 317 317 318 318 318 317 316 312 313 313 312 312 310
323 322 322 321 321 321 321 322 322 321 320 318 316 315 314 314 314 314 314 314 314 314 314 314 315 315 315 316 316 316 317 317 318 318 318 317 316 315 313 311 310 307 301
324 323 323 323 322 321 321 321 322 322 322 322 320 317 316 316 315 315 314 313 313 313 313 314 314 315 315 315 316 316 317 319 319 318 318 318 317 316 313 310 308 305 301
317 318 319 322 323 323 322 321 321 321 321 322 322 321 320 319 318 317 316 315 313 313 314 314 315 315 316 317 317 316 317 317 317 317 315 314 315 313 311 307 303 297 293
308 308 309 309 313 319 324 324 323 322 322 322 322 322 322 322 322 321 320 318 315 315 316 317 317 318 318 318 318 317 313 307 304 305 303 300 299 299 300 301 295 293 289
303 303 302 302 305 307 310 317 324 324 324 323 323 322 322 323 323 323 323 320 318 317 317 317 318 318 318 318 318 313 301 296 294 291 289 290 291 291 292 293 291 289 287
299 297 297 296 298 300 305 308 310 316 323 323 323 320 317 313 317 317 320 322 319 317 316 310 307 306 310 311 312 307 298 288 286 286 285 285 284 284 284 286 286 287 286
295 293 292 291 292 293 297 302 304 303 302 300 299 296 296 298 298 303 308 305 313 315 299 294 291 292 292 292 291 287 286 286 285 284 283 282 282 282 282 282 282 283 283
292 290 288 287 288 288 288 290 295 299 295 291 290 288 286 286 286 287 291 293 290 288 287 286 284 285 284 284 284 284 284 284 283 282 281 281 281 281 281 280 280 280 280
290 288 286 286 285 285 286 286 286 289 290 290 289 287 286 286 284 283 283 284 284 284 282 282 282 282 282 283 284 284 283 282 281 281 280 280 279 279 278 278 277 277 277
288 288 286 285 285 284 284 285 285 285 286 286 285 285 284 284 283 283 283 282 282 283 283 282 281 281 280 280 279 280 280 280 279 279 278 277 276 276 275 275 274 274 275
286 286 285 285 284 284 284 284 284 284 284 284 284 284 284 284 283 283 283 283 283 283 282 281 280 280 278 278 278 277 277 277 276 276 275 275 274 274 274 273 272 272 272
284 284 284 284 284 283 283 283 283 282 282 283 283 284 284 283 283 282 282 282 281 281 280 279 278 278 277 277 275 275 274 274 274 273 273 272 272 272 271 270 269 270 270
283 283 282 282 282 281 281 281 280 279 278 278 278 279 279 279 279 279 280 281 278 277 277 276 276 276 275 275 274 273 273 273 272 271 271 270 270 269 269 269 268 268 269
281 281 281 280 280 280 279 279 278 277 277 276 276 277 276 276 277 276 277 275 275 274 274 274 274 273 273 273 272 272 271 271 270 269 269 268 268 268 267 267 267 267 267
279 279 279 278 278 277 277 277 276 275 274 274 273 273 275 277 274 273 273 273 272 272 272 271 271 271 271 271 270 270 269 268 268 267 267 267 267 266 266 266 266 266 266
277 277 277 277 276 276 275 275 274 274 273 272 272 272 272 271 270 270 270 270 270 270 270 270 269 269 269 269 268 268 268 267 266 266 266 265 265 265 265 265 265 265 265
276 276 276 275 275 274 274 273 273 272 272 271 270 270 270 269 268 268 268 268 268 268 268 268 267 267 267 267 267 267 266 266 265 265 265 264 264 264 264 264 264 264 265
275 274 274 273 273 273 272 272 271 271 270 269 269 269 268 268 267 266 266 266 266 266 266 266 265 265 265 265 265 265 265 264 263 263 263 263 263 263 263 263 264 264 264
273 272 272 272 271 271 270 270 269 269 269 268 268 267 266 266 266 265 265 265 265 265 264 264 264 264 264 263 263 263 263 263 263 263 263 263 262 262 262 263 263 263 263
271 271 270 270 270 269 269 269 269 268 268 267 267 266 265 265 264 264 264 264 264 264 263 263 263 263 263 263 262 262 262 262 261 261 261 262 262 262 262 262 262 263 263
269 269 269 269 268 268 267 267 267 267 266 266 266 265 265 264 263 263 263 263 263 262 262 262 262 262 261 261 261 261 260 260 260 261 262 262 262 262 262 262 263 263 263

GFSGL_925_thetae_093.txt.gz
Theta_e
320 319 319 319 318 319 318 317 316 317 317 317 318 319 318 317 316 316 317 318 316 315 314 314 314 314 317 318 317 318 319 318 317 317 317 317 317 317 318 318 317 318 318
321 319 319 319 319 317 317 317 317 315 316 316 316 316 315 314 314 314 315 316 316 315 314 315 314 315 316 318 318 318 318 318 317 317 317 316 317 317 317 317 317 317 318
321 320 319 319 319 318 318 317 316 315 314 315 315 315 315 315 315 315 315 315 315 316 316 317 317 317 317 317 318 317 317 317 317 317 317 317 316 317 317 317 317 317 318
320 321 320 320 320 319 319 318 317 316 314 313 313 314 314 314 315 315 316 316 316 315 316 316 316 316 317 317 317 317 316 316 316 316 317 317 316 316 316 316 314 316 316
321 320 321 321 321 320 319 319 318 317 316 314 313 312 313 313 313 314 315 315 315 315 316 315 316 316 316 316 316 316 316 316 316 316 315 316 316 316 314 315 314 314 314
322 321 320 320 321 321 321 320 319 318 318 317 316 314 313 312 313 313 313 313 314 314 313 314 314 314 315 316 316 316 316 316 315 316 316 316 316 316 316 315 314 313 309
321 321 321 321 321 321 320 321 321 320 319 318 317 316 315 315 314 313 313 313 313 313 313 313 313 313 314 314 314 315 316 316 316 315 315 315 315 316 316 316 314 313 312
307 308 308 311 315 319 321 321 320 320 321 320 320 318 316 316 315 315 314 314 312 313 313 313 313 313 313 313 313 312 313 314 314 315 314 313 314 315 316 316 315 309 299
302 302 302 302 306 307 311 315 321 321 321 321 322 321 320 319 318 318 316 314 312 312 313 312 312 312 312 313 313 312 312 312 312 311 307 304 305 306 307 308 305 297 292
298 297 296 296 299 299 299 303 308 314 319 322 321 321 320 319 317 318 317 315 313 313 313 312 312 312 312 313 313 312 312 305 302 294 292 290 291 291 292 294 294 294 288
294 292 291 292 293 294 296 297 298 302 308 314 308 302 301 298 299 301 305 309 312 314 314 311 306 304 307 312 315 313 312 294 287 286 285 285 285 286 286 287 288 287 283
291 289 288 288 288 289 292 295 295 294 295 295 296 293 292 291 292 294 298 301 301 300 293 291 290 293 294 295 297 291 289 286 284 283 282 281 281 281 281 282 282 281 281
290 288 286 286 286 286 287 288 289 290 291 290 290 289 287 286 287 285 287 290 293 291 287 285 284 284 284 285 285 286 287 285 282 281 281 280 280 280 280 280 280 280 279
288 287 286 285 285 285 285 285 285 286 286 286 286 285 285 284 284 284 284 284 284 284 283 282 283 283 283 283 283 283 282 281 280 279 278 277 278 278 277 277 277 277 276
287 286 285 284 284 284 284 284 285 284 284 284 284 283 283 283 283 283 283 283 282 282 282 281 280 280 279 279 278 278 278 278 277 277 276 276 275 274 274 274 274 274 274
285 285 284 283 284 284 283 281 282 283 284 284 284 284 284 284 283 283 282 281 281 281 279 278 278 277 277 276 276 275 275 275 275 275 274 274 273 273 272 271 271 271 271
284 283 283 283 283 282 281 280 279 278 278 279 281 281 281 281 281 280 279 279 279 280 277 276 276 276 275 275 274 274 273 273 273 272 272 272 271 271 270 269 269 270 270
282 281 281 281 280 280 279 278 277 276 276 275 276 278 278 278 278 278 278 281 277 276 275 274 274 274 273 273 273 272 272 271 271 270 270 269 269 269 268 268 268 268 269
280 279 279 279 278 278 277 276 275 274 274 273 275 275 274 274 274 275 276 274 273 272 272 272 272 272 272 272 271 270 270 269 269 268 268 268 267 267 267 267 267 267 266
278 278 278 277 277 276 276 275 274 273 273 272 271 271 274 277 274 272 272 272 271 271 271 271 271 271 270 270 269 269 268 268 267 266 266 266 266 266 266 266 266 265 265
277 277 277 276 275 275 274 273 273 272 271 270 269 270 272 271 269 269 269 269 269 269 269 269 269 269 268 268 268 268 267 266 266 265 265 265 265 265 265 265 265 265 265
276 275 275 274 274 273 273 272 272 271 270 269 269 269 270 269 268 268 268 267 267 267 267 268 267 267 267 267 266 266 265 265 264 264 264 264 264 264 264 264 264 264 264
274 274 273 273 272 272 272 271 270 269 268 268 267 267 267 266 266 266 266 266 265 265 265 265 265 265 265 265 264 264 264 263 263 263 263 263 263 263 263 263 264 264 264
273 272 272 271 271 270 270 269 269 268 268 267 266 266 265 265 265 265 265 264 264 264 264 263 263 263 263 263 263 263 262 262 262 262 263 263 263 263 263 263 263 263 263
271 271 270 270 269 269 269 268 268 267 267 266 266 265 265 264 264 264 264 264 263 263 263 262 262 262 262 262 262 262 261 261 261 262 263 263 262 262 262 262 263 263 263
269 269 269 268 268 268 268 267 267 266 266 266 265 264 264 264 263 263 263 263 262 262 262 262 261 261 261 261 261 261 260 260 261 263 263 263 262 262 262 262 262 262 263

GFSGL_925_thetae_096.txt.gz
Theta_e
320 319 319 319 318 318 317 317 317 318 318 319 319 318 317 316 316 317 317 316 315 315 315 316 316 315 316 316 316 317 317 317 317 317 317 318 317 317 317 316 317 316 316
319 319 319 319 318 318 317 317 316 316 317 318 319 319 318 318 317 317 317 318 317 316 316 316 316 315 315 315 315 316 317 317 317 317 317 317 317 317 317 317 317 316 317
319 319 318 318 318 318 318 318 317 316 316 316 316 317 318 319 317 317 318 318 318 317 317 316 316 315 314 315 315 316 316 317 317 317 317 317 316 316 317 317 316 316 316
320 320 319 319 318 318 318 318 318 317 316 315 315 315 315 316 317 317 315 315 315 315 316 316 315 315 314 314 315 315 315 316 316 316 316 317 316 316 316 316 315 316 316
321 321 319 319 319 319 319 318 318 317 317 317 316 314 314 315 315 315 315 315 314 314 314 314 314 314 314 315 315 315 315 315 315 316 316 316 316 316 315 315 314 314 314
320 320 320 320 319 319 319 319 319 318 317 316 315 315 315 313 313 313 314 314 315 315 315 315 315 316 315 315 315 315 315 314 315 315 315 315 315 315 315 315 314 313 313
311 311 313 318 320 320 321 320 320 319 319 318 317 316 315 315 315 314 313 313 313 313 313 313 313 313 314 314 314 315 315 315 315 314 314 315 315 315 315 314 314 314 314
302 302 302 305 307 311 316 318 320 320 319 319 319 319 318 318 318 318 316 313 312 312 312 312 312 312 312 313 313 312 312 313 314 315 313 314 314 314 313 313 314 314 308
297 297 296 298 300 301 302 304 307 312 316 320 320 319 318 317 316 316 316 314 312 312 312 312 312 312 313 313 312 311 311 311 310 309 307 303 307 309 310 309 306 305 295
293 292 292 293 294 294 296 298 300 302 304 310 311 308 304 307 301 301 307 311 311 311 312 312 311 311 312 312 311 310 310 310 305 293 291 289 289 291 291 295 296 301 290
290 289 289 290 290 291 292 294 296 297 297 295 294 293 294 293 293 297 302 304 306 305 301 298 295 293 297 301 305 307 305 300 291 289 285 284 284 284 285 286 287 287 282
288 287 287 287 287 288 288 290 291 292 292 291 290 288 287 288 287 290 294 297 296 294 289 287 286 287 292 292 292 292 291 290 288 285 282 280 280 279 280 280 281 280 280
288 286 286 286 286 286 285 286 287 288 287 287 286 285 284 284 285 284 284 286 286 284 282 281 281 282 283 282 283 283 283 281 280 279 278 277 278 278 278 278 277 277 277
287 286 285 284 283 284 285 285 285 285 284 284 284 283 283 283 284 284 284 283 283 283 282 281 280 280 280 280 281 279 278 278 277 277 276 276 277 277 276 277 276 276 274
286 285 284 284 283 282 281 282 283 284 284 284 284 284 284 284 283 283 283 282 281 281 281 280 278 278 277 277 277 277 277 278 277 276 275 275 274 274 274 274 274 273 273
285 284 284 283 283 282 280 279 279 281 281 282 282 282 281 281 281 281 280 280 280 280 279 276 275 275 275 274 274 274 274 274 274 274 273 273 272 271 271 271 271 271 271
283 283 282 282 281 280 279 278 277 277 277 278 279 279 280 280 279 278 278 278 278 279 275 274 274 273 273 273 272 272 271 272 273 272 271 271 271 270 270 270 270 270 270
281 281 280 279 278 278 277 276 275 274 274 273 274 276 276 276 276 276 277 280 276 274 273 272 272 272 271 271 271 270 270 270 269 269 269 269 269 269 268 268 268 268 269
279 278 278 278 277 277 276 275 274 274 273 273 273 274 273 274 278 278 278 275 272 271 271 271 271 271 270 270 269 269 269 268 268 268 267 267 267 267 267 266 266 266 266
277 277 277 277 276 275 275 274 273 272 271 270 271 271 273 275 273 271 272 272 271 270 270 270 270 269 269 269 268 268 267 267 267 266 266 266 266 266 266 265 265 265 265
276 276 276 275 274 274 273 272 271 270 269 268 268 269 271 271 269 268 268 268 268 268 268 268 268 268 268 267 267 267 266 266 265 265 265 265 265 265 265 265 265 265 264
275 275 274 273 273 272 272 271 270 269 268 268 267 268 269 268 267 267 266 266 266 266 266 267 266 266 266 266 265 265 265 264 264 264 264 264 264 264 264 264 264 264 264
274 274 273 272 272 271 271 270 269 268 267 267 266 266 266 266 265 265 265 264 265 264 264 265 265 264 264 264 264 263 263 263 263 263 263 263 263 263 263 264 264 264 264
272 272 271 271 270 270 269 268 267 267 266 266 266 265 265 265 264 264 264 264 264 264 263 263 263 263 263 262 262 262 262 262 262 262 262 262 262 263 263 263 263 263 263
271 270 270 269 269 268 268 267 267 266 266 265 265 264 264 264 263 263 263 263 263 262 262 262 262 262 261 261 261 261 260 260 261 262 262 262 262 263 263 263 263 263 263
269 268 268 268 268 267 267 267 266 266 265 265 264 264 263 263 262 262 262 262 261 261 261 261 261 261 260 260 260 260 260 260 260 262 262 262 262 262 262 262 262 263 263

GFSGL_925_thetae_099.txt.gz
Theta_e
320 319 320 319 318 319 318 318 318 317 317 319 319 318 317 317 317 317 316 315 314 313 314 317 317 316 315 315 316 316 315 316 318 317 317 317 316 316 315 317 316 316 316
320 319 320 319 318 318 317 317 317 317 317 317 319 318 317 316 316 316 316 315 315 314 315 315 315 315 315 315 315 316 317 317 317 318 317 318 317 317 317 317 317 317 317
320 320 319 319 318 317 317 317 316 317 317 317 317 318 318 317 316 316 316 316 316 315 315 316 316 315 315 315 315 315 316 316 317 317 317 317 318 317 317 317 317 317 316
320 319 319 320 318 318 317 316 316 316 316 316 317 317 317 317 317 317 316 316 317 317 318 317 316 315 315 315 315 315 315 315 316 317 317 317 317 318 318 318 318 317 316
321 320 320 320 319 319 317 317 317 316 315 316 316 316 316 316 317 316 316 317 316 317 317 317 317 317 317 317 316 315 314 315 316 316 317 317 318 318 318 317 317 317 317
321 321 320 320 319 319 318 318 316 316 315 315 315 315 315 315 315 316 316 316 316 316 316 316 316 315 315 315 315 315 316 315 316 316 316 316 316 316 316 316 316 316 317
304 305 309 314 315 317 319 319 319 318 317 315 315 315 315 315 315 316 315 315 316 316 316 316 315 315 314 314 314 314 315 315 315 315 316 315 315 315 315 315 316 316 316
297 298 300 302 304 307 311 311 314 315 317 318 318 318 317 313 313 313 315 315 314 314 315 315 315 315 315 314 314 314 314 313 313 313 312 313 313 313 313 313 314 314 313
293 294 294 296 297 298 299 301 305 307 309 308 308 311 311 303 304 310 312 311 310 311 312 312 311 312 312 312 312 311 311 311 310 310 304 300 297 300 306 309 303 305 305
291 291 291 293 293 294 294 295 297 298 296 296 295 295 294 295 299 302 306 310 308 309 309 305 302 302 305 309 310 310 307 308 306 299 295 292 292 291 291 292 293 295 297
290 289 289 290 290 290 291 292 293 292 292 290 290 289 289 289 291 296 300 302 300 297 292 289 288 291 296 299 301 303 300 298 291 290 286 284 283 282 282 282 283 284 282
288 288 287 287 288 288 289 289 290 290 289 287 287 286 285 285 285 287 291 293 292 288 284 283 283 283 287 288 288 288 288 287 283 281 279 278 278 278 279 280 280 279 278
287 287 286 285 286 286 286 287 287 287 287 287 286 286 286 285 284 283 284 285 285 283 281 280 280 281 282 282 283 284 284 282 280 278 277 277 278 278 278 278 278 278 278
286 286 285 284 284 284 284 284 285 285 285 286 286 285 285 285 284 283 282 282 281 281 280 280 279 279 278 279 279 279 279 279 279 278 277 277 277 277 277 277 277 277 275
286 286 285 283 282 282 281 282 283 283 284 284 283 283 283 283 282 281 282 281 280 280 280 280 280 279 279 278 277 277 278 278 278 278 277 277 276 276 275 275 275 275 275
286 285 284 284 283 282 281 280 280 280 281 281 281 281 281 281 280 280 279 279 279 279 279 279 278 277 277 277 277 276 275 275 276 276 275 275 274 274 274 274 274 274 273
283 283 283 282 282 281 280 279 278 276 277 278 279 279 279 279 279 278 278 280 279 279 277 277 276 276 276 275 275 274 273 272 272 273 273 273 273 272 273 273 273 273 272
279 279 279 279 278 278 278 277 277 277 276 275 275 276 277 277 277 276 277 279 277 276 276 276 275 274 274 273 272 271 271 271 270 270 270 270 271 271 271 271 271 271 271
279 278 277 277 276 276 276 276 275 275 275 274 274 273 272 273 273 275 274 275 274 274 273 273 272 272 271 270 270 269 268 268 268 269 269 269 269 269 269 269 269 268 269
276 276 276 276 276 276 275 275 274 273 272 272 271 271 272 273 272 271 270 271 271 271 271 270 270 269 269 269 268 268 268 268 268 267 267 267 267 268 267 268 268 269 268
275 275 275 275 275 274 274 273 272 271 271 270 268 267 269 270 269 268 268 268 268 268 268 268 267 267 267 266 266 266 266 265 265 265 266 266 266 266 266 266 267 267 267
274 274 274 273 273 273 272 271 271 270 269 269 268 267 267 267 267 266 266 265 265 265 265 265 265 265 264 264 264 264 264 264 264 264 264 264 265 265 265 265 266 266 266
273 273 272 272 271 271 270 270 269 268 267 267 267 266 266 265 265 264 264 264 264 264 264 264 263 263 264 264 264 263 263 263 263 263 263 263 264 264 264 265 265 265 265
271 271 271 270 270 269 269 268 267 266 266 266 265 265 264 263 263 263 263 263 263 263 263 263 263 262 262 262 262 261 262 262 262 262 263 262 263 263 263 264 264 263 264
269 269 268 268 268 267 267 267 266 265 265 264 264 263 263 262 262 262 263 263 263 262 262 262 262 262 262 262 261 261 260 260 261 262 262 262 262 262 262 263 263 264 263
268 267 267 267 266 266 266 265 265 264 264 263 263 262 262 262 262 261 261 262 261 261 261 261 261 261 261 260 260 260 260 260 260 261 262 261 261 261 261 262 262 263 263

GFSGL_925_thetae_102.txt.gz
Theta_e
323 324 327 327 326 324 323 322 322 321 320 320 320 321 320 320 320 319 318 317 317 316 316 316 316 316 316 315 316 315 314 316 317 314 315 317 318 320 317 315 315 315 315
322 323 326 326 325 323 323 323 322 320 320 320 319 321 319 318 317 317 317 316 316 315 316 315 314 315 315 316 316 317 317 318 318 318 316 316 317 319 320 319 318 316 315
321 323 324 324 324 323 322 322 321 321 320 319 320 320 319 319 319 318 318 318 317 316 316 315 316 318 317 316 316 316 316 317 318 317 316 317 318 318 319 319 320 319 318
322 323 322 322 323 322 321 321 321 321 320 320 319 320 320 320 319 319 319 318 318 318 317 316 315 315 315 315 316 316 315 315 316 317 317 317 317 317 318 318 319 319 319
322 322 322 321 321 320 320 320 320 320 320 320 320 321 321 320 319 319 318 318 318 318 318 317 317 316 315 316 316 317 316 316 316 317 317 316 316 317 318 318 319 319 319
311 313 321 321 320 320 320 319 319 319 319 319 319 320 320 320 320 318 319 319 319 319 320 318 318 318 319 319 318 317 318 317 317 317 316 316 317 317 318 319 319 320 321
301 302 305 308 310 314 318 319 320 320 320 319 319 319 319 319 318 317 317 319 320 319 319 319 319 319 319 319 318 317 317 316 317 317 319 319 319 318 317 317 318 318 318
296 297 298 300 301 304 306 308 311 313 316 317 316 317 317 312 315 315 314 314 314 316 318 318 318 318 318 318 317 317 316 315 313 314 313 312 311 311 311 311 311 309 308
294 294 295 295 297 298 298 299 301 302 302 301 299 301 301 300 303 307 310 312 312 311 310 310 311 311 312 313 314 314 314 311 307 307 305 301 301 300 302 304 302 301 303
292 292 293 293 295 295 296 295 294 293 292 292 291 292 293 294 298 302 305 308 306 304 300 296 296 299 299 302 304 306 306 303 298 293 291 291 289 289 291 292 290 291 294
291 291 291 292 292 293 293 294 292 291 289 289 288 287 288 288 291 297 301 300 296 291 287 286 286 290 293 295 297 297 296 291 288 287 285 283 285 284 284 284 285 285 283
290 289 289 290 290 291 292 292 292 291 290 288 287 286 286 285 285 286 290 291 290 288 283 283 282 283 285 286 286 286 288 287 285 282 280 280 279 279 279 279 279 279 278
288 289 288 288 288 288 289 290 290 291 291 290 290 289 288 287 285 283 283 284 284 283 282 281 282 282 282 282 282 283 283 281 280 280 279 279 279 280 280 280 280 279 278
288 287 285 285 286 287 286 286 287 288 288 288 288 287 287 286 286 285 285 284 283 283 282 281 281 281 281 281 282 281 281 282 282 282 282 281 281 281 280 280 281 281 279
288 287 286 285 284 283 281 283 283 282 284 285 285 285 285 284 282 282 283 283 283 282 283 283 283 283 283 282 281 281 281 281 281 281 281 281 280 279 279 279 279 279 278
287 286 286 286 285 285 283 280 279 280 280 281 281 282 281 281 280 280 280 280 281 283 283 283 282 282 282 281 281 280 279 279 279 279 279 278 278 278 278 278 277 277 277
284 284 284 284 284 284 284 283 281 278 277 278 279 279 279 279 279 279 279 280 281 282 282 281 281 281 280 279 278 278 277 276 276 276 277 277 277 276 277 277 277 276 276
282 281 282 282 282 282 282 281 282 281 280 278 275 276 276 276 277 278 280 281 280 279 279 279 278 277 277 276 275 275 275 275 274 274 275 274 275 275 275 275 275 275 275
281 281 281 280 280 280 280 280 280 280 279 279 278 277 276 275 275 276 277 278 278 277 276 276 275 275 274 274 273 273 272 272 272 273 273 273 273 273 273 273 272 271 273
279 279 280 280 280 280 279 279 279 278 277 276 275 275 277 277 276 275 275 275 275 274 274 273 273 273 272 272 272 272 272 272 271 271 271 271 272 272 272 272 272 273 272
279 279 279 279 279 278 278 278 277 277 276 274 272 271 272 275 274 273 272 272 272 272 272 272 271 271 271 270 270 270 270 270 269 270 270 270 270 271 271 271 271 271 270
278 278 278 278 277 277 277 276 276 275 275 274 273 270 270 272 271 271 270 270 269 269 269 269 269 268 268 268 268 269 268 268 268 268 268 268 269 269 270 270 270 270 270
277 277 276 276 275 275 275 274 274 273 272 272 271 270 270 270 269 269 268 268 268 267 267 267 267 266 266 265 266 266 266 266 265 264 267 267 268 269 269 269 269 269 269
275 275 275 274 274 274 273 272 270 270 271 271 270 269 269 268 268 267 266 266 266 266 265 264 264 263 264 264 265 264 263 262 263 264 263 265 267 267 268 268 268 267 268
273 273 273 273 273 272 272 271 271 270 270 269 269 268 268 267 266 266 265 264 264 264 263 263 263 263 262 261 261 261 262 261 262 263 263 264 264 264 265 267 266 268 267
271 271 271 271 271 271 271 270 270 269 268 268 267 267 266 266 265 265 264 263 263 263 262 262 262 261 261 262 261 260 261 261 260 261 262 263 264 265 265 266 266 266 267

GFSGL_925_thetae_105.txt.gz
Theta_e
327 328 330 331 331 330 327 326 325 323 323 323 323 323 322 322 323 323 321 321 320 319 319 319 320 319 319 319 318 318 317 317 317 316 316 315 318 318 318 319 319 320 320
325 325 328 331 330 329 326 325 325 322 323 323 323 322 322 320 321 322 321 320 319 318 318 317 318 318 318 318 317 317 317 316 315 315 315 315 315 317 318 317 319 319 319
324 325 328 330 329 328 326 324 322 322 322 322 322 322 321 321 319 320 319 318 318 318 317 316 316 316 316 317 317 317 317 317 317 317 318 319 318 318 317 317 318 319 319
323 325 326 327 327 327 325 323 322 322 321 321 321 322 320 320 320 320 320 320 319 319 319 318 317 317 316 317 318 318 318 318 317 317 317 318 318 318 318 319 320 320 320
323 324 324 325 325 325 324 322 322 321 320 320 321 321 320 320 320 320 320 319 319 319 319 318 318 318 318 319 319 319 319 318 317 317 317 316 316 317 319 318 317 317 319
309 310 322 323 322 321 321 321 321 321 320 321 321 321 322 322 321 321 321 321 320 320 321 320 320 318 318 317 316 316 317 319 319 318 317 317 317 318 319 319 318 319 320
299 301 305 310 314 317 320 320 320 320 320 321 320 320 320 315 318 320 319 319 321 321 320 320 320 320 319 318 317 317 318 318 318 318 318 318 318 317 314 313 313 312 311
295 296 298 300 302 303 306 307 310 314 316 315 314 315 310 307 312 317 317 317 317 316 314 313 314 314 315 315 316 316 314 314 315 315 312 310 310 311 309 307 306 305 304
292 293 295 296 297 297 297 296 297 299 301 300 299 300 300 300 304 311 314 314 311 308 305 304 306 307 308 311 313 311 306 303 302 305 305 301 297 298 301 302 300 298 299
292 292 292 294 295 294 294 292 292 293 291 290 291 291 291 293 298 302 305 305 302 296 294 294 295 297 298 301 304 305 302 293 293 292 291 292 292 292 292 292 292 291 292
291 291 292 292 293 293 293 292 292 291 291 290 289 288 287 288 289 294 297 297 293 290 287 286 286 290 292 294 296 296 292 289 288 288 286 285 285 285 285 285 285 285 284
289 290 290 290 291 292 292 293 293 292 291 290 289 288 286 285 285 285 288 289 289 287 284 283 283 284 285 287 287 287 287 287 285 283 282 281 281 281 281 281 281 282 281
288 288 288 288 289 288 289 290 291 291 291 290 290 289 288 287 286 285 284 285 285 284 283 283 284 284 284 283 284 284 284 284 283 283 283 282 282 282 282 282 282 281 279
289 287 286 284 283 284 285 284 284 287 288 289 289 287 286 285 286 285 285 285 284 283 283 283 283 283 283 283 283 283 283 283 283 283 283 282 282 282 282 282 283 283 282
289 288 288 286 284 282 280 281 282 282 283 285 283 284 284 282 282 284 284 284 284 284 284 285 284 284 283 283 282 282 282 282 282 282 283 283 282 282 281 281 281 281 280
287 287 287 287 287 285 283 280 279 280 280 281 281 281 280 281 281 282 282 283 284 284 284 284 283 283 283 282 282 281 280 280 281 281 281 280 280 280 280 280 280 279 279
285 285 286 286 286 285 285 284 281 279 278 278 279 279 279 280 281 281 281 282 283 282 282 282 281 281 281 281 280 279 278 278 278 278 279 279 279 278 279 279 279 279 278
283 282 283 284 284 283 283 283 283 282 281 279 277 277 278 279 280 281 282 282 281 280 280 280 280 279 278 278 277 277 277 277 277 277 277 277 277 277 277 276 276 277 277
282 283 282 282 282 282 282 282 282 281 281 281 280 279 278 278 278 278 279 280 279 279 278 278 277 277 277 277 276 276 275 274 275 276 275 275 276 276 275 276 276 274 275
281 280 281 282 282 282 282 281 281 280 279 278 277 277 279 279 278 277 277 277 277 277 276 276 275 275 275 275 274 275 275 274 274 274 274 274 274 274 275 274 274 274 274
281 281 280 280 280 280 280 280 280 279 278 276 274 274 276 277 276 275 275 275 275 275 274 274 273 273 273 273 273 272 272 272 272 272 272 272 272 273 273 273 273 273 273
279 280 279 279 279 279 279 278 278 278 277 276 275 273 274 274 274 273 273 272 272 272 272 272 271 270 270 270 271 271 270 270 269 270 270 271 272 272 272 272 272 272 273
278 279 278 278 278 277 277 277 277 276 276 275 274 274 273 273 272 272 271 270 270 269 269 269 269 268 269 268 268 268 268 267 267 266 268 270 270 270 271 271 271 271 271
276 277 277 276 275 276 276 275 273 273 274 274 273 272 272 271 271 269 269 269 268 268 267 267 266 264 264 266 266 265 263 263 264 265 265 267 269 269 269 270 270 270 270
275 275 275 275 275 275 275 274 274 273 273 272 272 271 271 270 270 269 268 267 267 267 266 266 264 265 263 263 262 262 263 263 262 264 264 266 267 266 268 267 268 268 270
273 273 273 273 273 273 273 273 272 272 271 271 270 270 269 269 268 268 267 266 265 265 265 265 264 263 263 265 263 262 262 262 262 262 263 264 266 267 267 267 268 268 268

GFSGL_925_thetae_108.txt.gz
Theta_e
336 336 336 335 335 333 331 329 329 326 325 324 324 325 326 325 324 323 323 322 321 322 321 322 322 322 321 321 321 321 320 318 316 316 316 317 316 317 319 320 319 319 320
331 331 332 333 332 332 330 328 326 324 323 323 323 323 324 324 324 323 322 321 321 320 320 320 321 321 321 320 319 319 318 318 317 317 317 316 316 316 315 315 317 318 319
327 328 330 331 332 330 328 327 325 323 322 323 323 323 322 322 322 322 322 321 321 320 320 319 319 319 319 319 318 318 318 318 317 317 316 316 315 315 316 318 318 317 316
325 326 328 329 330 329 327 326 324 322 322 322 322 322 322 321 320 320 320 321 320 319 319 319 318 318 317 317 317 317 317 317 317 316 316 317 317 317 318 319 318 318 319
314 322 326 328 328 327 326 324 323 322 322 322 322 322 320 320 321 321 320 319 319 319 319 319 318 317 317 317 317 318 318 318 318 318 317 317 316 316 317 317 317 318 318
300 301 307 321 324 325 323 323 322 321 321 321 321 321 320 319 320 320 320 319 319 319 319 319 318 317 317 317 317 319 319 319 319 318 317 317 317 317 317 317 316 317 316
296 297 299 302 308 318 321 321 321 321 321 321 321 320 314 313 318 320 321 320 320 320 320 319 319 317 318 318 318 318 317 316 316 316 315 317 316 316 316 315 312 310 310
294 294 295 297 297 299 305 310 312 315 311 308 306 308 310 310 316 318 319 319 317 316 314 313 313 314 316 316 315 315 314 313 312 311 312 309 308 309 308 305 306 304 302
291 292 293 294 294 294 292 294 296 298 298 295 294 295 295 299 304 311 314 313 310 304 302 304 304 306 306 309 309 308 304 298 295 298 298 295 295 297 299 302 299 298 298
290 291 292 292 293 292 292 291 291 292 291 292 291 291 290 293 298 303 306 306 298 293 292 292 294 297 299 301 303 303 295 290 292 291 291 292 292 292 294 294 293 293 293
289 289 290 291 291 292 292 292 291 292 292 291 290 289 290 289 291 295 296 295 292 289 287 286 287 290 294 297 297 295 292 289 289 289 287 286 285 285 286 286 287 288 286
287 287 287 287 288 290 291 291 291 291 290 289 289 288 287 287 288 287 291 291 291 288 285 285 285 285 287 288 288 287 287 287 286 284 283 283 283 283 282 282 282 282 282
287 285 284 284 284 285 286 286 288 289 289 288 288 287 286 286 285 284 285 285 285 284 284 284 284 284 284 285 285 285 285 285 284 284 283 282 282 283 283 283 283 282 280
289 287 285 283 282 282 283 283 283 285 285 285 286 284 283 284 285 285 285 284 284 284 284 283 283 283 283 283 283 283 283 283 283 283 282 282 282 282 282 282 282 283 281
287 287 287 284 282 281 280 281 281 281 282 282 282 282 282 283 284 284 285 285 285 285 285 284 284 283 283 282 281 281 282 282 282 282 282 282 282 281 280 280 281 280 279
286 286 286 286 285 282 280 279 280 280 280 280 281 281 282 283 283 284 284 284 284 283 283 283 283 282 282 281 280 279 279 279 280 280 280 279 279 280 280 280 279 278 278
283 284 284 285 285 285 284 281 279 279 278 279 280 280 281 282 282 282 282 282 282 281 281 281 280 280 279 279 279 278 277 278 278 278 278 278 278 278 278 278 278 278 277
283 283 283 283 283 283 283 283 283 281 279 278 278 279 279 280 281 281 281 280 280 279 279 279 278 278 277 277 276 276 276 277 276 276 276 276 277 277 277 275 275 275 276
281 282 283 282 282 282 282 282 281 280 280 279 279 280 279 279 279 279 279 278 278 277 277 277 276 276 276 276 276 275 275 275 275 275 275 275 275 275 275 275 275 275 275
281 281 281 282 282 281 281 281 280 279 277 276 275 276 278 277 276 276 276 276 276 276 275 275 274 274 274 274 274 274 273 273 273 274 273 273 274 274 274 274 274 274 273
280 280 281 280 280 280 280 280 279 278 276 274 274 275 276 276 275 274 274 274 274 273 273 273 272 272 272 272 272 272 271 271 271 272 271 272 273 273 273 272 273 273 272
279 280 279 279 278 278 278 278 278 278 277 275 274 274 274 274 273 272 272 271 271 271 271 271 270 269 269 270 270 270 269 269 269 270 270 271 271 272 272 272 271 272 271
277 278 278 277 278 277 276 276 277 276 275 275 274 273 273 272 272 271 270 270 269 269 268 269 268 268 268 268 267 267 267 267 266 266 268 269 270 269 270 271 271 270 270
276 276 277 277 276 276 276 275 274 274 274 274 273 272 272 271 270 269 269 268 268 267 267 266 266 265 266 266 265 265 264 265 265 266 266 267 267 268 268 269 269 269 270
274 275 275 275 275 275 275 274 274 273 273 272 272 272 271 270 269 269 267 267 267 266 266 265 265 264 264 264 264 263 263 263 264 265 266 266 267 267 268 268 268 268 268
272 272 273 273 273 273 273 273 272 272 271 271 270 270 270 269 269 268 266 266 266 265 265 265 264 264 264 264 264 263 263 263 263 264 264 265 265 266 266 266 266 266 267

GFSGL_925_thetae_111.txt.gz
Theta_e
331 336 336 336 336 334 334 332 330 329 327 326 327 328 328 325 325 323 323 322 322 322 323 323 322 321 321 322 322 321 319 318 316 316 319 319 317 318 320 319 319 319 319
328 332 335 335 334 333 333 331 330 328 327 326 325 325 326 326 325 324 323 322 322 322 322 322 322 322 321 321 321 321 321 321 319 318 317 316 317 318 316 317 319 319 319
322 328 330 332 333 332 331 329 328 326 325 324 324 324 323 325 325 324 323 322 321 321 321 321 321 321 321 321 320 320 320 320 319 319 318 317 316 316 316 316 315 315 316
306 316 322 328 330 330 329 326 325 324 323 323 322 322 321 323 323 323 323 322 322 321 321 320 320 320 320 320 320 319 319 318 318 317 317 317 316 316 316 316 316 317 318
299 302 304 316 327 328 327 326 324 323 322 322 322 322 322 322 322 322 321 321 321 321 320 320 320 319 319 319 318 318 318 318 317 316 316 316 316 316 317 317 318 318 317
296 297 298 302 308 319 324 323 322 322 322 322 322 322 321 320 320 320 320 320 320 319 318 319 318 317 317 316 316 317 317 317 317 317 317 316 316 316 317 316 316 316 314
294 295 296 297 297 296 306 319 321 321 322 321 321 320 317 316 319 320 320 320 319 319 319 319 319 318 318 317 317 316 317 317 317 317 317 316 315 315 315 315 315 315 313
292 293 293 294 294 294 294 294 300 304 307 311 308 308 308 308 314 318 320 318 317 314 314 314 314 315 316 315 316 314 311 312 313 313 312 312 310 310 310 308 307 305 303
290 291 292 292 292 292 292 291 291 293 291 291 293 297 299 302 305 310 317 314 310 306 304 305 306 307 307 309 311 309 302 298 296 300 300 297 298 300 302 303 302 300 295
288 288 290 292 292 291 291 292 292 290 290 289 289 289 292 294 299 305 307 303 297 294 295 295 297 301 302 305 307 305 295 289 291 292 292 293 293 293 295 296 295 296 293
286 287 288 290 291 291 291 293 292 291 291 288 287 286 289 290 291 294 297 297 291 288 288 288 289 293 297 299 299 296 295 290 290 290 287 286 286 286 287 288 289 291 288
285 285 285 286 286 288 289 289 290 290 289 288 288 286 285 286 288 289 290 291 290 288 285 285 285 287 290 291 290 289 287 289 286 285 284 283 283 282 282 281 283 284 284
286 284 283 283 284 284 284 285 286 286 287 285 285 285 285 285 284 285 286 286 286 285 284 284 284 285 285 285 285 285 284 284 283 283 282 283 283 283 283 282 280 279 279
287 284 283 282 281 281 282 282 283 283 283 283 283 283 284 285 285 285 284 284 284 284 283 283 283 283 283 283 283 283 283 283 283 282 282 282 282 282 282 282 281 279 278
286 286 284 282 280 280 280 280 281 282 282 282 282 283 284 284 285 285 285 285 285 284 283 282 282 281 280 280 281 282 282 282 282 282 281 281 280 280 280 280 279 278 277
284 284 284 285 282 280 279 279 280 281 281 282 282 283 283 283 283 284 284 284 283 282 282 281 280 280 279 278 278 279 279 279 279 279 279 279 279 279 279 278 278 277 276
283 283 283 283 283 284 281 279 278 279 280 280 281 281 282 282 282 282 281 281 281 281 279 278 278 277 277 277 277 277 277 277 278 278 278 277 277 277 278 277 277 276 276
282 283 282 282 282 282 282 281 279 279 278 279 279 280 280 280 281 280 279 279 278 278 277 277 277 276 276 275 276 276 276 276 276 276 276 276 276 276 275 275 275 275 275
281 281 282 282 282 281 281 280 279 278 277 277 278 278 278 277 277 277 277 276 276 275 275 275 275 275 275 275 275 275 274 274 274 275 275 275 274 274 274 274 274 274 274
280 280 280 280 280 280 280 278 277 276 275 276 276 276 276 276 275 275 275 275 274 274 274 273 273 273 273 273 273 273 273 273 272 272 273 273 273 273 273 273 273 273 272
279 279 278 278 278 279 279 278 276 275 274 274 275 275 274 274 273 273 272 272 272 271 271 271 271 271 272 271 271 271 271 271 271 271 271 272 272 272 272 272 272 272 271
278 278 278 278 277 277 277 277 277 275 274 274 274 273 273 272 271 271 270 270 270 270 270 270 269 269 269 269 269 269 269 268 269 270 270 270 271 271 271 271 271 270 270
276 277 276 276 276 275 275 275 275 275 274 273 273 272 271 271 270 269 269 269 268 268 268 268 268 268 267 267 267 267 267 267 267 267 268 269 269 269 270 270 270 270 269
274 275 275 275 275 275 275 274 274 273 273 272 272 271 270 270 269 268 268 267 267 267 266 266 265 265 265 265 265 265 265 265 266 266 267 267 267 267 268 268 268 268 268
272 273 273 273 273 273 273 273 273 272 272 271 271 270 270 269 268 267 267 266 266 266 265 265 264 264 264 264 264 264 264 265 265 265 266 266 266 266 267 267 267 267 267
271 271 271 271 271 271 271 271 271 271 271 270 270 269 269 268 267 267 266 266 265 265 265 264 264 264 264 264 264 263 264 264 264 264 265 265 265 265 265 265 265 266 266